GEFSCGP_prec_meanprecacc_084.txt.gz
Total_Precipitation_Accumulation
0.00 0.00 0.00 0.00 0.00 0.00 0.00 0.00 0.00 0.00 0.00 0.00 0.00 0.00 0.00 0.00 0.00 0.00 0.01 0.03 0.04 0.09 0.18 0.34 0.61 0.90 1.11 1.52 1.41 1.01 0.71 0.58 0.57 0.62 0.67 0.78 0.94 1.06 1.16 1.28 1.29 1.26 1.22 1.25
0.00 0.00 0.00 0.00 0.00 0.00 0.00 0.00 0.00 0.00 0.00 0.00 0.00 0.00 0.00 0.00 0.00 0.00 0.01 0.02 0.05 0.09 0.17 0.29 0.49 0.68 0.80 0.90 1.02 1.07 1.03 0.95 0.96 1.14 1.35 1.65 1.84 1.92 2.04 2.08 2.06 2.04 2.01 1.94
0.00 0.00 0.00 0.00 0.00 0.00 0.00 0.00 0.00 0.00 0.00 0.00 0.00 0.00 0.01 0.01 0.01 0.01 0.01 0.01 0.03 0.06 0.12 0.25 0.39 0.44 0.60 0.80 0.95 1.07 1.15 1.26 1.44 1.70 1.92 2.30 2.56 2.65 2.55 2.36 2.34 2.29 2.14 2.03
0.00 0.00 0.00 0.00 0.00 0.00 0.00 0.00 0.00 0.00 0.00 0.00 0.00 0.00 0.01 0.01 0.02 0.02 0.02 0.02 0.03 0.05 0.07 0.16 0.31 0.35 0.50 0.80 0.97 1.02 1.21 1.51 1.84 2.27 2.55 2.70 2.91 2.92 2.76 2.55 2.37 2.17 1.96 1.79
0.00 0.00 0.00 0.00 0.00 0.00 0.00 0.00 0.00 0.00 0.00 0.00 0.00 0.00 0.01 0.02 0.02 0.04 0.04 0.05 0.05 0.05 0.07 0.12 0.21 0.31 0.48 0.72 0.93 1.03 1.25 1.67 2.16 2.57 2.85 2.97 2.97 2.82 2.63 2.37 2.13 1.93 1.76 1.58
0.00 0.00 0.00 0.00 0.00 0.00 0.00 0.00 0.00 0.00 0.00 0.00 0.00 0.00 0.02 0.03 0.04 0.04 0.04 0.06 0.07 0.09 0.11 0.16 0.22 0.30 0.45 0.65 0.88 1.05 1.35 1.83 2.17 2.49 2.77 2.78 2.73 2.62 2.45 2.23 2.00 1.83 1.65 1.47
0.00 0.00 0.00 0.00 0.00 0.00 0.00 0.00 0.00 0.00 0.00 0.00 0.00 0.01 0.06 0.07 0.08 0.06 0.07 0.09 0.11 0.14 0.17 0.24 0.30 0.38 0.52 0.73 0.95 1.20 1.51 1.84 1.99 2.07 2.17 2.22 2.20 2.13 2.06 1.94 1.77 1.56 1.32 1.09
0.00 0.00 0.00 0.00 0.00 0.00 0.00 0.00 0.00 0.00 0.00 0.01 0.01 0.06 0.16 0.13 0.12 0.11 0.12 0.13 0.16 0.18 0.23 0.30 0.38 0.46 0.60 0.73 0.89 1.07 1.26 1.46 1.57 1.57 1.64 1.74 1.78 1.76 1.66 1.48 1.28 1.08 0.89 0.72
0.00 0.00 0.00 0.00 0.00 0.00 0.00 0.00 0.00 0.00 0.00 0.01 0.03 0.12 0.21 0.20 0.18 0.19 0.22 0.22 0.24 0.28 0.33 0.40 0.46 0.55 0.64 0.70 0.75 0.79 0.84 0.88 0.97 1.05 1.08 1.09 1.08 1.07 1.05 0.95 0.84 0.73 0.64 0.53
0.00 0.01 0.00 0.00 0.00 0.00 0.00 0.00 0.00 0.00 0.00 0.01 0.04 0.13 0.22 0.25 0.24 0.23 0.27 0.31 0.31 0.32 0.37 0.44 0.48 0.50 0.52 0.49 0.49 0.49 0.50 0.55 0.60 0.61 0.61 0.64 0.65 0.66 0.64 0.56 0.52 0.48 0.46 0.43
0.01 0.01 0.01 0.01 0.00 0.00 0.00 0.00 0.00 0.00 0.00 0.01 0.03 0.15 0.27 0.39 0.43 0.42 0.42 0.41 0.34 0.38 0.45 0.45 0.45 0.41 0.37 0.32 0.31 0.31 0.32 0.33 0.34 0.36 0.38 0.41 0.42 0.42 0.43 0.41 0.38 0.35 0.34 0.34
0.01 0.02 0.02 0.03 0.02 0.01 0.01 0.01 0.01 0.01 0.01 0.01 0.03 0.18 0.27 0.48 0.58 0.57 0.50 0.45 0.44 0.44 0.46 0.42 0.40 0.36 0.32 0.29 0.26 0.25 0.25 0.25 0.25 0.24 0.23 0.25 0.27 0.27 0.26 0.28 0.30 0.28 0.27 0.27
0.02 0.03 0.06 0.07 0.05 0.03 0.03 0.02 0.02 0.02 0.02 0.02 0.06 0.26 0.36 0.51 0.63 0.59 0.52 0.54 0.61 0.64 0.62 0.54 0.44 0.37 0.32 0.29 0.27 0.25 0.25 0.24 0.22 0.19 0.18 0.18 0.19 0.19 0.19 0.20 0.20 0.20 0.20 0.20
0.02 0.03 0.07 0.17 0.17 0.09 0.06 0.04 0.04 0.05 0.05 0.06 0.13 0.32 0.41 0.54 0.66 0.70 0.72 0.73 0.77 0.79 0.73 0.60 0.50 0.43 0.37 0.33 0.31 0.28 0.27 0.23 0.20 0.17 0.15 0.15 0.16 0.17 0.17 0.17 0.18 0.18 0.19 0.20
0.02 0.04 0.04 0.07 0.10 0.09 0.08 0.06 0.08 0.10 0.11 0.15 0.23 0.41 0.54 0.73 0.84 0.88 0.91 0.90 0.86 0.82 0.75 0.65 0.59 0.52 0.44 0.39 0.36 0.32 0.29 0.25 0.20 0.17 0.17 0.19 0.21 0.23 0.23 0.23 0.23 0.22 0.23 0.21
0.01 0.03 0.04 0.06 0.07 0.08 0.09 0.08 0.09 0.14 0.18 0.25 0.37 0.59 0.79 0.95 0.98 1.03 1.04 0.95 0.89 0.85 0.84 0.83 0.78 0.70 0.59 0.51 0.44 0.39 0.35 0.32 0.29 0.30 0.32 0.32 0.31 0.30 0.30 0.29 0.28 0.28 0.26 0.22
0.02 0.03 0.04 0.06 0.07 0.10 0.19 0.20 0.18 0.22 0.29 0.36 0.48 0.60 0.72 0.87 1.00 1.01 1.01 1.01 1.02 1.05 1.02 0.94 0.83 0.74 0.66 0.60 0.56 0.54 0.50 0.47 0.46 0.45 0.42 0.38 0.35 0.34 0.31 0.28 0.29 0.27 0.22 0.17
0.04 0.07 0.07 0.07 0.11 0.20 0.26 0.22 0.24 0.33 0.42 0.44 0.49 0.54 0.68 0.80 0.89 0.91 0.94 1.00 1.04 1.06 0.99 0.87 0.74 0.68 0.67 0.69 0.68 0.62 0.56 0.52 0.49 0.47 0.44 0.37 0.30 0.27 0.26 0.27 0.24 0.18 0.14 0.12
0.04 0.10 0.16 0.15 0.19 0.29 0.41 0.27 0.25 0.36 0.45 0.37 0.42 0.46 0.61 0.68 0.74 0.85 0.90 0.94 0.99 0.92 0.81 0.73 0.69 0.70 0.76 0.77 0.71 0.63 0.57 0.51 0.47 0.42 0.34 0.25 0.20 0.19 0.18 0.16 0.13 0.12 0.12 0.11
0.07 0.12 0.25 0.29 0.33 0.42 0.47 0.25 0.22 0.37 0.58 0.45 0.44 0.43 0.47 0.53 0.73 0.77 0.75 0.72 0.73 0.72 0.71 0.73 0.77 0.82 0.81 0.72 0.60 0.52 0.45 0.38 0.31 0.25 0.19 0.16 0.14 0.10 0.08 0.09 0.10 0.10 0.10 0.08
0.22 0.25 0.34 0.45 0.56 0.59 0.31 0.14 0.25 0.52 0.57 0.49 0.48 0.47 0.46 0.50 0.57 0.51 0.50 0.56 0.63 0.68 0.71 0.74 0.75 0.71 0.63 0.54 0.46 0.41 0.35 0.28 0.19 0.13 0.11 0.09 0.07 0.05 0.04 0.07 0.09 0.09 0.07 0.07
0.35 0.44 0.49 0.54 0.65 0.70 0.31 0.19 0.34 0.42 0.35 0.38 0.40 0.42 0.42 0.43 0.42 0.43 0.43 0.47 0.53 0.63 0.66 0.62 0.56 0.49 0.40 0.31 0.28 0.26 0.21 0.14 0.09 0.07 0.06 0.04 0.03 0.02 0.03 0.07 0.09 0.08 0.09 0.09
0.36 0.41 0.54 0.65 0.73 0.55 0.29 0.25 0.28 0.31 0.32 0.32 0.35 0.36 0.39 0.44 0.46 0.51 0.53 0.54 0.52 0.49 0.48 0.42 0.34 0.27 0.21 0.16 0.17 0.16 0.11 0.08 0.07 0.08 0.07 0.05 0.04 0.04 0.04 0.07 0.08 0.08 0.09 0.08
0.49 0.33 0.42 0.57 0.62 0.45 0.29 0.24 0.22 0.23 0.26 0.28 0.35 0.38 0.38 0.38 0.37 0.41 0.44 0.44 0.42 0.37 0.31 0.24 0.19 0.16 0.13 0.10 0.09 0.07 0.05 0.06 0.08 0.09 0.08 0.07 0.07 0.07 0.06 0.07 0.05 0.06 0.06 0.06
0.45 0.46 0.53 0.63 0.63 0.50 0.39 0.28 0.24 0.27 0.29 0.33 0.36 0.34 0.31 0.26 0.24 0.24 0.25 0.26 0.24 0.20 0.17 0.14 0.12 0.10 0.07 0.05 0.05 0.04 0.03 0.04 0.07 0.08 0.07 0.06 0.07 0.08 0.08 0.07 0.03 0.02 0.04 0.02
0.33 0.42 0.59 0.75 0.62 0.49 0.46 0.38 0.33 0.32 0.29 0.26 0.23 0.22 0.25 0.23 0.20 0.19 0.19 0.17 0.15 0.12 0.09 0.09 0.08 0.05 0.04 0.03 0.02 0.02 0.02 0.03 0.06 0.08 0.07 0.05 0.05 0.06 0.07 0.10 0.08 0.02 0.01 0.01

GEFSCGP_prec_meanprecacc_090.txt.gz
Total_Precipitation_Accumulation
0.00 0.00 0.00 0.00 0.00 0.00 0.00 0.00 0.00 0.00 0.00 0.00 0.00 0.01 0.02 0.02 0.06 0.10 0.07 0.18 0.24 0.19 0.30 0.45 0.75 1.09 1.22 1.59 1.48 1.07 0.77 0.64 0.64 0.70 0.75 0.86 1.02 1.15 1.26 1.38 1.38 1.35 1.31 1.35
0.00 0.00 0.00 0.00 0.00 0.00 0.00 0.00 0.00 0.00 0.00 0.00 0.02 0.04 0.07 0.08 0.06 0.09 0.07 0.13 0.16 0.18 0.33 0.46 0.67 0.87 0.96 1.04 1.13 1.16 1.11 1.04 1.05 1.23 1.44 1.76 1.97 2.05 2.17 2.21 2.18 2.16 2.13 2.07
0.00 0.00 0.00 0.00 0.00 0.00 0.00 0.00 0.00 0.00 0.00 0.00 0.03 0.06 0.07 0.05 0.03 0.06 0.09 0.15 0.12 0.19 0.37 0.47 0.59 0.59 0.78 1.03 1.17 1.23 1.27 1.37 1.53 1.79 2.01 2.41 2.69 2.78 2.68 2.49 2.49 2.44 2.28 2.18
0.00 0.00 0.00 0.00 0.00 0.00 0.00 0.00 0.00 0.00 0.00 0.00 0.02 0.06 0.06 0.05 0.04 0.08 0.12 0.13 0.11 0.16 0.30 0.39 0.50 0.48 0.60 0.93 1.13 1.18 1.33 1.63 1.96 2.38 2.67 2.85 3.07 3.07 2.91 2.69 2.50 2.30 2.09 1.91
0.00 0.00 0.00 0.00 0.00 0.00 0.00 0.00 0.00 0.00 0.00 0.00 0.00 0.03 0.08 0.08 0.08 0.12 0.12 0.11 0.13 0.15 0.27 0.37 0.37 0.40 0.55 0.80 1.03 1.16 1.39 1.80 2.28 2.70 3.00 3.15 3.16 3.03 2.81 2.52 2.27 2.08 1.90 1.71
0.00 0.00 0.00 0.00 0.00 0.00 0.00 0.00 0.00 0.00 0.00 0.00 0.00 0.02 0.07 0.12 0.14 0.14 0.12 0.12 0.16 0.16 0.25 0.32 0.34 0.36 0.49 0.72 0.96 1.15 1.46 1.96 2.31 2.62 2.94 2.97 2.94 2.82 2.64 2.41 2.18 2.00 1.81 1.63
0.01 0.01 0.00 0.00 0.00 0.00 0.00 0.00 0.00 0.00 0.00 0.00 0.00 0.03 0.14 0.17 0.21 0.16 0.15 0.16 0.20 0.17 0.22 0.32 0.37 0.41 0.56 0.78 1.01 1.27 1.59 1.93 2.11 2.18 2.30 2.41 2.41 2.35 2.30 2.19 1.99 1.73 1.49 1.25
0.06 0.03 0.01 0.00 0.00 0.00 0.00 0.00 0.00 0.00 0.01 0.01 0.02 0.10 0.26 0.24 0.25 0.22 0.18 0.18 0.20 0.21 0.25 0.33 0.40 0.48 0.62 0.77 0.93 1.12 1.30 1.50 1.63 1.64 1.71 1.85 1.92 1.91 1.85 1.68 1.46 1.24 1.04 0.86
0.06 0.04 0.01 0.00 0.00 0.00 0.00 0.00 0.00 0.00 0.01 0.03 0.08 0.20 0.32 0.32 0.30 0.30 0.26 0.25 0.27 0.29 0.34 0.42 0.48 0.56 0.65 0.72 0.77 0.82 0.87 0.93 1.04 1.13 1.16 1.17 1.17 1.17 1.17 1.09 0.96 0.86 0.77 0.65
0.02 0.04 0.01 0.00 0.00 0.00 0.00 0.00 0.00 0.01 0.02 0.05 0.09 0.22 0.38 0.40 0.38 0.36 0.35 0.35 0.34 0.34 0.39 0.46 0.50 0.52 0.53 0.51 0.52 0.53 0.54 0.61 0.65 0.66 0.66 0.68 0.70 0.72 0.72 0.65 0.61 0.58 0.57 0.53
0.01 0.04 0.02 0.01 0.01 0.01 0.00 0.01 0.00 0.01 0.02 0.05 0.10 0.31 0.49 0.63 0.66 0.62 0.52 0.45 0.36 0.39 0.46 0.46 0.45 0.42 0.38 0.34 0.33 0.34 0.35 0.36 0.36 0.38 0.40 0.43 0.45 0.45 0.46 0.45 0.43 0.40 0.39 0.39
0.01 0.04 0.06 0.04 0.02 0.01 0.01 0.01 0.01 0.02 0.04 0.06 0.11 0.37 0.49 0.72 0.84 0.83 0.63 0.50 0.47 0.46 0.47 0.43 0.41 0.37 0.33 0.30 0.28 0.27 0.27 0.28 0.28 0.25 0.24 0.27 0.29 0.28 0.28 0.30 0.32 0.31 0.31 0.31
0.02 0.08 0.16 0.14 0.09 0.04 0.03 0.03 0.02 0.03 0.03 0.05 0.15 0.47 0.57 0.71 0.83 0.79 0.65 0.60 0.64 0.66 0.64 0.56 0.45 0.38 0.33 0.30 0.28 0.26 0.27 0.26 0.24 0.21 0.20 0.20 0.20 0.21 0.21 0.22 0.22 0.23 0.23 0.23
0.03 0.08 0.18 0.32 0.27 0.12 0.07 0.04 0.04 0.06 0.09 0.12 0.23 0.49 0.59 0.69 0.80 0.86 0.85 0.82 0.82 0.84 0.76 0.62 0.52 0.45 0.38 0.34 0.32 0.31 0.29 0.26 0.23 0.20 0.17 0.17 0.18 0.19 0.19 0.19 0.20 0.20 0.20 0.21
0.03 0.08 0.11 0.16 0.15 0.11 0.09 0.07 0.09 0.11 0.14 0.21 0.34 0.56 0.73 0.91 0.98 1.03 1.07 1.02 0.93 0.88 0.79 0.68 0.62 0.55 0.46 0.41 0.38 0.34 0.32 0.28 0.22 0.19 0.18 0.20 0.22 0.24 0.24 0.24 0.24 0.24 0.24 0.22
0.02 0.05 0.09 0.13 0.12 0.12 0.12 0.10 0.11 0.15 0.20 0.29 0.47 0.73 0.94 1.09 1.09 1.13 1.17 1.09 1.04 0.97 0.94 0.91 0.85 0.75 0.64 0.53 0.46 0.41 0.37 0.34 0.30 0.31 0.33 0.33 0.32 0.31 0.31 0.30 0.29 0.29 0.27 0.23
0.03 0.05 0.07 0.11 0.09 0.14 0.26 0.23 0.19 0.24 0.31 0.41 0.58 0.71 0.84 0.95 1.06 1.08 1.08 1.10 1.16 1.24 1.22 1.12 0.97 0.85 0.74 0.65 0.59 0.56 0.52 0.49 0.48 0.46 0.43 0.40 0.36 0.35 0.32 0.29 0.30 0.29 0.24 0.19
0.05 0.09 0.10 0.10 0.14 0.27 0.33 0.23 0.25 0.37 0.47 0.48 0.54 0.59 0.73 0.85 0.95 0.99 1.02 1.09 1.18 1.23 1.18 1.06 0.90 0.81 0.76 0.75 0.73 0.66 0.58 0.53 0.51 0.49 0.46 0.39 0.32 0.28 0.27 0.28 0.26 0.20 0.16 0.14
0.04 0.12 0.19 0.19 0.24 0.36 0.46 0.28 0.26 0.41 0.54 0.45 0.51 0.52 0.65 0.71 0.77 0.90 0.97 1.04 1.11 1.07 0.98 0.91 0.84 0.82 0.85 0.82 0.75 0.67 0.60 0.54 0.49 0.45 0.37 0.28 0.23 0.22 0.20 0.19 0.16 0.14 0.14 0.13
0.07 0.13 0.27 0.33 0.38 0.49 0.53 0.27 0.23 0.41 0.68 0.53 0.56 0.53 0.54 0.60 0.79 0.83 0.82 0.79 0.82 0.84 0.86 0.88 0.91 0.94 0.90 0.79 0.65 0.57 0.50 0.43 0.35 0.28 0.22 0.19 0.16 0.13 0.11 0.12 0.12 0.12 0.12 0.10
0.23 0.26 0.36 0.48 0.60 0.64 0.32 0.15 0.28 0.60 0.66 0.56 0.58 0.60 0.57 0.59 0.65 0.57 0.57 0.64 0.72 0.78 0.82 0.85 0.85 0.80 0.72 0.61 0.52 0.48 0.41 0.33 0.23 0.17 0.14 0.12 0.09 0.07 0.07 0.09 0.11 0.11 0.10 0.10
0.36 0.45 0.50 0.56 0.68 0.73 0.31 0.19 0.37 0.47 0.39 0.41 0.46 0.49 0.47 0.47 0.48 0.50 0.51 0.55 0.62 0.72 0.76 0.72 0.66 0.59 0.49 0.40 0.37 0.36 0.29 0.19 0.12 0.10 0.08 0.06 0.05 0.03 0.04 0.09 0.11 0.11 0.12 0.11
0.36 0.41 0.55 0.66 0.75 0.56 0.30 0.26 0.29 0.34 0.35 0.34 0.40 0.41 0.42 0.46 0.49 0.56 0.61 0.62 0.61 0.59 0.59 0.52 0.43 0.36 0.28 0.23 0.24 0.23 0.16 0.11 0.09 0.10 0.09 0.07 0.05 0.05 0.05 0.08 0.10 0.10 0.10 0.09
0.50 0.34 0.43 0.57 0.64 0.45 0.30 0.25 0.24 0.25 0.27 0.29 0.38 0.41 0.40 0.41 0.40 0.44 0.50 0.52 0.50 0.45 0.39 0.32 0.26 0.22 0.18 0.14 0.12 0.10 0.07 0.07 0.10 0.12 0.10 0.09 0.10 0.10 0.08 0.08 0.06 0.07 0.07 0.06
0.46 0.47 0.54 0.65 0.64 0.51 0.40 0.29 0.25 0.28 0.29 0.34 0.38 0.37 0.33 0.29 0.27 0.27 0.29 0.30 0.28 0.25 0.21 0.18 0.16 0.13 0.09 0.06 0.06 0.05 0.04 0.05 0.10 0.11 0.09 0.09 0.09 0.10 0.10 0.09 0.04 0.03 0.04 0.02
0.34 0.43 0.61 0.77 0.63 0.50 0.48 0.39 0.33 0.33 0.30 0.27 0.23 0.24 0.26 0.25 0.24 0.23 0.23 0.22 0.19 0.15 0.12 0.11 0.10 0.07 0.05 0.04 0.03 0.02 0.02 0.04 0.09 0.11 0.09 0.06 0.07 0.07 0.08 0.12 0.10 0.02 0.01 0.01

GEFSCGP_prec_meanprecacc_096.txt.gz
Total_Precipitation_Accumulation
0.00 0.00 0.00 0.00 0.00 0.00 0.00 0.00 0.00 0.00 0.00 0.00 0.00 0.02 0.02 0.03 0.08 0.11 0.11 0.25 0.33 0.33 0.49 0.75 1.17 1.74 1.90 2.24 2.03 1.52 1.13 0.90 0.83 0.87 0.92 1.03 1.17 1.31 1.43 1.53 1.53 1.51 1.46 1.47
0.00 0.00 0.00 0.00 0.00 0.00 0.00 0.00 0.00 0.00 0.00 0.00 0.02 0.05 0.08 0.12 0.16 0.18 0.16 0.29 0.30 0.33 0.61 0.91 1.28 1.63 1.72 1.71 1.67 1.64 1.54 1.38 1.26 1.39 1.60 1.92 2.15 2.25 2.39 2.39 2.34 2.31 2.28 2.22
0.00 0.00 0.00 0.00 0.00 0.00 0.00 0.00 0.01 0.00 0.00 0.01 0.04 0.07 0.09 0.11 0.16 0.16 0.16 0.26 0.34 0.42 0.63 0.84 1.13 1.33 1.60 1.81 1.86 1.89 1.80 1.75 1.81 2.02 2.22 2.59 2.89 2.98 2.90 2.71 2.69 2.62 2.44 2.34
0.00 0.00 0.00 0.00 0.00 0.00 0.00 0.00 0.01 0.01 0.01 0.01 0.03 0.08 0.09 0.10 0.15 0.18 0.22 0.27 0.34 0.44 0.57 0.73 0.93 1.04 1.21 1.53 1.72 1.80 1.83 2.02 2.30 2.68 2.91 3.03 3.26 3.27 3.13 2.91 2.70 2.47 2.25 2.06
0.00 0.00 0.00 0.00 0.00 0.00 0.00 0.00 0.00 0.00 0.00 0.01 0.01 0.05 0.13 0.15 0.17 0.26 0.25 0.27 0.37 0.36 0.49 0.64 0.68 0.76 0.90 1.15 1.38 1.60 1.85 2.20 2.62 2.97 3.25 3.38 3.39 3.28 3.05 2.73 2.45 2.24 2.06 1.86
0.00 0.00 0.00 0.00 0.00 0.00 0.00 0.00 0.00 0.00 0.01 0.01 0.01 0.04 0.14 0.22 0.25 0.26 0.23 0.25 0.36 0.37 0.40 0.50 0.57 0.59 0.74 0.96 1.21 1.40 1.73 2.22 2.53 2.81 3.14 3.20 3.17 3.06 2.86 2.60 2.34 2.14 1.95 1.78
0.01 0.01 0.01 0.00 0.00 0.00 0.00 0.00 0.00 0.01 0.01 0.02 0.01 0.06 0.23 0.31 0.38 0.32 0.31 0.38 0.45 0.39 0.37 0.49 0.52 0.56 0.76 0.99 1.22 1.45 1.75 2.07 2.24 2.32 2.45 2.58 2.61 2.57 2.51 2.36 2.12 1.85 1.62 1.39
0.06 0.04 0.01 0.01 0.00 0.00 0.00 0.00 0.01 0.01 0.02 0.02 0.05 0.18 0.38 0.41 0.47 0.47 0.39 0.34 0.41 0.48 0.47 0.52 0.58 0.61 0.77 0.90 1.06 1.23 1.39 1.59 1.72 1.73 1.82 1.96 2.03 2.04 1.99 1.80 1.57 1.35 1.15 0.96
0.07 0.05 0.01 0.01 0.01 0.00 0.00 0.00 0.01 0.01 0.02 0.05 0.14 0.31 0.49 0.60 0.66 0.68 0.53 0.41 0.39 0.44 0.50 0.55 0.61 0.69 0.81 0.83 0.88 0.92 0.96 1.01 1.12 1.20 1.23 1.25 1.25 1.26 1.26 1.17 1.04 0.95 0.85 0.72
0.04 0.04 0.02 0.01 0.01 0.01 0.01 0.01 0.01 0.02 0.05 0.08 0.15 0.35 0.58 0.71 0.71 0.69 0.59 0.52 0.48 0.46 0.50 0.57 0.58 0.59 0.63 0.61 0.65 0.67 0.64 0.68 0.72 0.71 0.70 0.73 0.77 0.79 0.77 0.69 0.65 0.64 0.62 0.57
0.02 0.05 0.03 0.03 0.01 0.02 0.01 0.02 0.02 0.04 0.04 0.10 0.18 0.45 0.69 0.86 0.86 0.82 0.71 0.58 0.48 0.50 0.54 0.54 0.53 0.48 0.43 0.41 0.42 0.46 0.44 0.42 0.42 0.42 0.44 0.47 0.48 0.49 0.49 0.48 0.46 0.43 0.42 0.42
0.02 0.06 0.07 0.05 0.03 0.02 0.02 0.03 0.03 0.05 0.08 0.11 0.19 0.54 0.76 0.98 1.08 1.08 0.86 0.67 0.63 0.57 0.56 0.52 0.48 0.44 0.39 0.35 0.32 0.31 0.32 0.33 0.31 0.28 0.27 0.29 0.31 0.30 0.30 0.32 0.35 0.34 0.33 0.33
0.02 0.09 0.17 0.15 0.10 0.05 0.04 0.04 0.04 0.04 0.09 0.13 0.23 0.64 0.85 1.00 1.12 1.05 0.88 0.78 0.80 0.76 0.71 0.62 0.51 0.43 0.38 0.34 0.31 0.28 0.29 0.29 0.27 0.24 0.23 0.22 0.22 0.23 0.23 0.23 0.24 0.24 0.24 0.24
0.03 0.09 0.20 0.35 0.29 0.14 0.09 0.07 0.09 0.09 0.14 0.17 0.29 0.59 0.78 0.92 1.03 1.05 1.02 0.94 0.92 0.92 0.83 0.67 0.57 0.48 0.41 0.37 0.34 0.32 0.31 0.29 0.25 0.22 0.18 0.18 0.19 0.21 0.20 0.20 0.21 0.21 0.20 0.21
0.05 0.12 0.14 0.18 0.18 0.15 0.12 0.12 0.13 0.15 0.18 0.26 0.40 0.63 0.83 1.04 1.15 1.24 1.27 1.20 1.08 0.99 0.88 0.75 0.68 0.59 0.48 0.43 0.40 0.37 0.34 0.30 0.24 0.20 0.19 0.21 0.23 0.25 0.25 0.25 0.25 0.25 0.25 0.23
0.03 0.07 0.12 0.16 0.17 0.18 0.16 0.15 0.13 0.18 0.22 0.33 0.52 0.79 1.03 1.18 1.18 1.22 1.26 1.18 1.14 1.11 1.06 1.02 0.95 0.83 0.69 0.57 0.50 0.45 0.41 0.37 0.33 0.33 0.34 0.34 0.33 0.32 0.32 0.31 0.30 0.29 0.27 0.23
0.04 0.06 0.09 0.14 0.14 0.22 0.33 0.26 0.22 0.28 0.33 0.43 0.62 0.76 0.93 1.03 1.12 1.12 1.12 1.16 1.23 1.34 1.36 1.26 1.10 0.95 0.83 0.73 0.66 0.62 0.56 0.51 0.49 0.48 0.45 0.40 0.37 0.35 0.33 0.30 0.31 0.29 0.24 0.19
0.06 0.11 0.13 0.14 0.18 0.36 0.41 0.26 0.28 0.40 0.48 0.50 0.57 0.61 0.77 0.90 0.99 1.03 1.06 1.14 1.23 1.28 1.24 1.13 0.98 0.86 0.82 0.80 0.77 0.69 0.60 0.56 0.53 0.51 0.47 0.39 0.32 0.29 0.28 0.29 0.27 0.21 0.16 0.15
0.05 0.13 0.21 0.21 0.30 0.43 0.50 0.30 0.30 0.44 0.56 0.48 0.55 0.55 0.67 0.73 0.80 0.93 1.01 1.07 1.15 1.11 1.02 0.97 0.91 0.88 0.89 0.87 0.78 0.70 0.63 0.56 0.52 0.47 0.38 0.29 0.23 0.23 0.22 0.20 0.17 0.15 0.15 0.14
0.07 0.13 0.28 0.34 0.41 0.52 0.54 0.27 0.24 0.44 0.74 0.57 0.60 0.59 0.60 0.65 0.82 0.86 0.85 0.83 0.86 0.87 0.90 0.92 0.98 1.02 0.97 0.85 0.69 0.60 0.53 0.45 0.38 0.30 0.24 0.20 0.17 0.14 0.12 0.13 0.13 0.13 0.13 0.11
0.23 0.26 0.36 0.49 0.61 0.65 0.33 0.16 0.29 0.62 0.69 0.58 0.60 0.64 0.63 0.66 0.69 0.59 0.59 0.67 0.75 0.82 0.86 0.89 0.89 0.86 0.79 0.67 0.56 0.52 0.44 0.36 0.25 0.18 0.15 0.12 0.09 0.08 0.07 0.10 0.12 0.12 0.10 0.10
0.36 0.45 0.51 0.57 0.69 0.74 0.31 0.20 0.37 0.47 0.40 0.42 0.47 0.51 0.50 0.51 0.51 0.53 0.54 0.58 0.65 0.76 0.80 0.77 0.70 0.63 0.53 0.44 0.41 0.40 0.33 0.23 0.14 0.11 0.08 0.07 0.06 0.04 0.05 0.10 0.11 0.11 0.12 0.11
0.36 0.42 0.55 0.67 0.76 0.56 0.30 0.26 0.29 0.34 0.35 0.35 0.40 0.41 0.43 0.46 0.50 0.58 0.63 0.65 0.64 0.63 0.63 0.57 0.47 0.40 0.33 0.27 0.27 0.27 0.20 0.13 0.10 0.10 0.10 0.08 0.06 0.06 0.05 0.09 0.10 0.10 0.10 0.09
0.50 0.35 0.43 0.58 0.64 0.46 0.30 0.25 0.24 0.25 0.27 0.30 0.38 0.42 0.41 0.41 0.40 0.45 0.51 0.53 0.52 0.47 0.42 0.36 0.30 0.26 0.21 0.16 0.15 0.13 0.09 0.08 0.11 0.12 0.11 0.10 0.11 0.10 0.08 0.08 0.06 0.07 0.07 0.06
0.46 0.47 0.55 0.65 0.65 0.51 0.41 0.29 0.25 0.28 0.29 0.34 0.38 0.37 0.34 0.30 0.28 0.28 0.30 0.31 0.29 0.26 0.23 0.20 0.18 0.15 0.10 0.08 0.06 0.05 0.05 0.06 0.10 0.11 0.10 0.09 0.10 0.11 0.11 0.09 0.04 0.03 0.04 0.02
0.34 0.43 0.61 0.77 0.63 0.50 0.48 0.39 0.33 0.33 0.30 0.27 0.24 0.24 0.26 0.26 0.25 0.24 0.24 0.22 0.20 0.16 0.13 0.12 0.10 0.08 0.06 0.04 0.03 0.02 0.02 0.04 0.10 0.11 0.09 0.07 0.07 0.07 0.08 0.13 0.10 0.02 0.01 0.01

GEFSCGP_prec_meanprecacc_102.txt.gz
Total_Precipitation_Accumulation
0.00 0.00 0.00 0.00 0.00 0.00 0.00 0.00 0.00 0.00 0.00 0.00 0.01 0.02 0.04 0.05 0.10 0.13 0.13 0.27 0.35 0.36 0.52 0.81 1.24 1.85 2.06 2.49 2.27 1.78 1.45 1.32 1.26 1.23 1.25 1.32 1.44 1.58 1.71 1.84 1.84 1.80 1.73 1.71
0.00 0.00 0.00 0.00 0.00 0.00 0.00 0.00 0.00 0.00 0.00 0.01 0.03 0.07 0.10 0.15 0.19 0.20 0.19 0.31 0.32 0.36 0.65 0.97 1.37 1.76 1.90 1.95 1.99 2.01 1.96 1.94 1.83 1.86 2.06 2.37 2.54 2.61 2.72 2.71 2.67 2.65 2.59 2.50
0.00 0.00 0.00 0.00 0.00 0.00 0.00 0.01 0.01 0.01 0.01 0.02 0.05 0.10 0.12 0.15 0.19 0.19 0.19 0.29 0.37 0.46 0.68 0.91 1.22 1.49 1.83 2.12 2.21 2.32 2.27 2.36 2.50 2.64 2.75 3.08 3.35 3.39 3.26 3.01 2.96 2.89 2.68 2.56
0.00 0.00 0.00 0.00 0.00 0.00 0.00 0.00 0.02 0.01 0.01 0.02 0.04 0.10 0.12 0.14 0.19 0.22 0.26 0.31 0.38 0.48 0.62 0.79 1.00 1.18 1.43 1.79 2.04 2.22 2.38 2.62 2.94 3.31 3.56 3.61 3.71 3.68 3.51 3.24 2.97 2.72 2.47 2.26
0.00 0.00 0.00 0.00 0.00 0.00 0.00 0.00 0.00 0.01 0.01 0.01 0.02 0.06 0.16 0.19 0.21 0.29 0.28 0.31 0.43 0.41 0.55 0.70 0.74 0.85 1.07 1.38 1.62 1.87 2.21 2.61 3.09 3.47 3.78 3.93 3.90 3.71 3.43 3.02 2.68 2.43 2.23 2.01
0.00 0.00 0.00 0.00 0.00 0.00 0.00 0.00 0.01 0.01 0.01 0.02 0.02 0.05 0.16 0.26 0.30 0.30 0.27 0.30 0.41 0.42 0.45 0.56 0.63 0.68 0.86 1.10 1.38 1.60 1.96 2.48 2.81 3.14 3.49 3.57 3.57 3.43 3.17 2.82 2.52 2.28 2.08 1.88
0.01 0.01 0.01 0.01 0.00 0.00 0.00 0.00 0.01 0.01 0.01 0.02 0.02 0.08 0.26 0.35 0.43 0.38 0.37 0.45 0.52 0.44 0.42 0.54 0.58 0.68 0.89 1.11 1.36 1.61 1.92 2.27 2.41 2.50 2.66 2.80 2.84 2.80 2.73 2.56 2.28 1.97 1.73 1.48
0.06 0.04 0.01 0.01 0.01 0.00 0.00 0.00 0.01 0.01 0.02 0.03 0.08 0.21 0.42 0.45 0.51 0.54 0.47 0.41 0.47 0.53 0.53 0.57 0.67 0.76 0.93 1.03 1.17 1.35 1.52 1.74 1.85 1.85 1.96 2.12 2.21 2.22 2.15 1.95 1.70 1.45 1.24 1.04
0.07 0.05 0.01 0.01 0.01 0.01 0.00 0.00 0.01 0.02 0.02 0.05 0.16 0.35 0.55 0.66 0.72 0.76 0.63 0.49 0.45 0.49 0.54 0.59 0.66 0.77 0.96 0.98 1.01 1.03 1.05 1.12 1.23 1.31 1.35 1.35 1.36 1.37 1.36 1.27 1.14 1.04 0.93 0.79
0.04 0.05 0.02 0.01 0.01 0.01 0.01 0.01 0.01 0.02 0.05 0.09 0.17 0.38 0.63 0.79 0.83 0.84 0.70 0.57 0.53 0.52 0.54 0.61 0.62 0.63 0.71 0.76 0.79 0.80 0.73 0.78 0.83 0.82 0.80 0.81 0.85 0.89 0.87 0.77 0.72 0.69 0.67 0.61
0.03 0.05 0.03 0.03 0.02 0.02 0.02 0.02 0.02 0.04 0.05 0.10 0.19 0.46 0.71 0.91 0.92 0.92 0.81 0.65 0.53 0.56 0.59 0.58 0.57 0.53 0.49 0.50 0.57 0.63 0.59 0.55 0.54 0.53 0.53 0.53 0.53 0.54 0.55 0.53 0.49 0.46 0.44 0.44
0.02 0.06 0.07 0.06 0.03 0.02 0.03 0.03 0.03 0.06 0.08 0.12 0.20 0.55 0.78 1.01 1.13 1.16 0.95 0.73 0.69 0.64 0.62 0.57 0.54 0.52 0.48 0.45 0.45 0.46 0.49 0.48 0.46 0.39 0.36 0.35 0.35 0.33 0.33 0.35 0.37 0.35 0.35 0.36
0.03 0.09 0.17 0.16 0.10 0.06 0.05 0.04 0.05 0.05 0.09 0.13 0.23 0.65 0.89 1.06 1.16 1.10 0.95 0.87 0.89 0.86 0.79 0.69 0.59 0.54 0.50 0.45 0.41 0.39 0.41 0.41 0.38 0.33 0.30 0.27 0.26 0.25 0.25 0.25 0.25 0.25 0.25 0.26
0.03 0.09 0.20 0.35 0.30 0.15 0.10 0.07 0.10 0.10 0.14 0.18 0.29 0.59 0.82 1.01 1.10 1.10 1.09 1.01 0.99 1.01 0.93 0.76 0.65 0.59 0.54 0.47 0.41 0.39 0.38 0.36 0.32 0.28 0.24 0.22 0.23 0.23 0.22 0.21 0.21 0.21 0.21 0.22
0.05 0.12 0.14 0.18 0.19 0.16 0.13 0.12 0.13 0.15 0.18 0.27 0.40 0.63 0.85 1.08 1.19 1.29 1.36 1.26 1.14 1.07 0.96 0.82 0.76 0.70 0.60 0.53 0.48 0.43 0.40 0.35 0.29 0.25 0.24 0.25 0.26 0.26 0.26 0.26 0.25 0.25 0.25 0.23
0.03 0.07 0.12 0.16 0.17 0.18 0.17 0.16 0.14 0.19 0.23 0.34 0.53 0.80 1.05 1.21 1.23 1.27 1.33 1.24 1.19 1.17 1.14 1.10 1.04 0.94 0.81 0.65 0.56 0.50 0.45 0.41 0.36 0.35 0.36 0.36 0.35 0.33 0.32 0.31 0.30 0.30 0.27 0.24
0.04 0.07 0.10 0.15 0.14 0.22 0.35 0.28 0.23 0.29 0.34 0.44 0.63 0.78 0.95 1.08 1.19 1.18 1.18 1.23 1.28 1.39 1.44 1.36 1.19 1.04 0.91 0.79 0.71 0.65 0.58 0.54 0.51 0.50 0.47 0.42 0.37 0.36 0.33 0.30 0.31 0.29 0.24 0.19
0.06 0.11 0.13 0.15 0.19 0.37 0.42 0.27 0.28 0.41 0.49 0.51 0.58 0.62 0.78 0.94 1.02 1.06 1.11 1.21 1.30 1.35 1.31 1.20 1.03 0.91 0.86 0.85 0.81 0.71 0.63 0.58 0.55 0.53 0.49 0.40 0.32 0.29 0.28 0.29 0.27 0.21 0.16 0.15
0.05 0.13 0.21 0.22 0.31 0.44 0.51 0.31 0.30 0.44 0.57 0.51 0.56 0.56 0.68 0.74 0.81 0.96 1.05 1.13 1.23 1.19 1.10 1.04 0.97 0.92 0.93 0.90 0.81 0.72 0.65 0.58 0.53 0.48 0.38 0.29 0.23 0.23 0.22 0.20 0.17 0.15 0.15 0.14
0.07 0.13 0.28 0.35 0.42 0.54 0.55 0.28 0.25 0.44 0.75 0.59 0.62 0.60 0.61 0.67 0.83 0.87 0.88 0.87 0.92 0.93 0.96 0.99 1.05 1.09 1.03 0.90 0.73 0.63 0.55 0.46 0.39 0.31 0.24 0.20 0.18 0.14 0.13 0.13 0.13 0.13 0.13 0.11
0.23 0.26 0.36 0.49 0.62 0.65 0.33 0.16 0.29 0.62 0.70 0.59 0.62 0.65 0.64 0.67 0.71 0.60 0.61 0.70 0.78 0.86 0.91 0.94 0.94 0.92 0.84 0.72 0.62 0.57 0.47 0.37 0.27 0.20 0.16 0.13 0.10 0.08 0.07 0.10 0.12 0.12 0.10 0.10
0.36 0.45 0.51 0.57 0.69 0.74 0.31 0.20 0.38 0.47 0.40 0.42 0.48 0.52 0.51 0.51 0.52 0.54 0.56 0.61 0.69 0.79 0.84 0.81 0.75 0.70 0.59 0.48 0.46 0.45 0.37 0.25 0.17 0.13 0.10 0.08 0.06 0.04 0.05 0.10 0.11 0.11 0.12 0.11
0.36 0.42 0.55 0.67 0.76 0.56 0.30 0.26 0.29 0.34 0.35 0.35 0.40 0.42 0.44 0.47 0.51 0.59 0.65 0.67 0.67 0.65 0.66 0.60 0.51 0.45 0.38 0.32 0.32 0.31 0.24 0.16 0.12 0.11 0.10 0.08 0.06 0.06 0.05 0.09 0.11 0.10 0.10 0.09
0.51 0.35 0.43 0.58 0.64 0.46 0.30 0.25 0.24 0.25 0.27 0.30 0.38 0.42 0.41 0.41 0.41 0.46 0.52 0.55 0.53 0.49 0.45 0.39 0.33 0.28 0.24 0.20 0.19 0.16 0.12 0.11 0.13 0.13 0.11 0.10 0.11 0.11 0.08 0.08 0.06 0.07 0.07 0.06
0.46 0.47 0.55 0.65 0.65 0.51 0.41 0.29 0.25 0.28 0.29 0.34 0.38 0.37 0.34 0.30 0.28 0.28 0.30 0.32 0.30 0.27 0.24 0.21 0.19 0.16 0.13 0.10 0.09 0.08 0.07 0.08 0.12 0.12 0.10 0.09 0.10 0.11 0.11 0.09 0.04 0.03 0.04 0.02
0.34 0.43 0.61 0.77 0.63 0.50 0.48 0.39 0.33 0.33 0.30 0.27 0.24 0.24 0.26 0.26 0.25 0.24 0.24 0.23 0.20 0.16 0.14 0.12 0.11 0.09 0.07 0.05 0.04 0.03 0.03 0.05 0.11 0.11 0.09 0.07 0.07 0.07 0.08 0.13 0.10 0.02 0.01 0.01

GEFSCGP_prec_meanprecacc_108.txt.gz
Total_Precipitation_Accumulation
0.00 0.00 0.00 0.00 0.00 0.00 0.00 0.00 0.00 0.00 0.00 0.00 0.01 0.03 0.04 0.06 0.11 0.13 0.14 0.28 0.36 0.38 0.55 0.84 1.28 1.90 2.11 2.55 2.33 1.86 1.55 1.45 1.40 1.38 1.38 1.45 1.57 1.72 1.87 2.02 2.02 1.97 1.89 1.89
0.00 0.00 0.00 0.00 0.00 0.00 0.00 0.00 0.00 0.00 0.00 0.01 0.04 0.07 0.11 0.15 0.19 0.21 0.20 0.32 0.33 0.37 0.67 1.00 1.40 1.79 1.94 1.99 2.03 2.07 2.03 2.02 1.94 2.00 2.22 2.53 2.73 2.81 2.92 2.90 2.86 2.82 2.77 2.68
0.00 0.00 0.00 0.00 0.00 0.00 0.00 0.01 0.01 0.01 0.01 0.02 0.06 0.11 0.13 0.16 0.20 0.20 0.20 0.30 0.38 0.48 0.70 0.93 1.25 1.51 1.86 2.16 2.26 2.38 2.34 2.45 2.63 2.80 2.94 3.29 3.60 3.65 3.49 3.22 3.16 3.07 2.85 2.72
0.00 0.00 0.00 0.00 0.00 0.00 0.00 0.00 0.02 0.01 0.02 0.03 0.05 0.13 0.16 0.17 0.21 0.24 0.28 0.33 0.40 0.50 0.65 0.82 1.04 1.20 1.47 1.83 2.10 2.28 2.45 2.70 3.07 3.49 3.75 3.81 3.94 3.92 3.75 3.47 3.19 2.92 2.65 2.43
0.00 0.00 0.00 0.00 0.00 0.00 0.00 0.00 0.01 0.01 0.01 0.02 0.03 0.08 0.19 0.22 0.23 0.31 0.30 0.33 0.45 0.43 0.58 0.73 0.77 0.89 1.11 1.43 1.68 1.94 2.27 2.69 3.22 3.63 3.97 4.16 4.14 3.96 3.70 3.30 2.95 2.65 2.42 2.18
0.00 0.00 0.00 0.00 0.00 0.00 0.00 0.00 0.01 0.01 0.02 0.03 0.03 0.07 0.19 0.29 0.32 0.33 0.29 0.32 0.44 0.44 0.48 0.59 0.67 0.71 0.90 1.14 1.42 1.66 2.03 2.57 2.94 3.31 3.70 3.82 3.85 3.69 3.43 3.06 2.74 2.48 2.25 2.03
0.01 0.01 0.01 0.01 0.00 0.00 0.00 0.01 0.02 0.02 0.02 0.03 0.03 0.11 0.29 0.37 0.45 0.41 0.39 0.47 0.54 0.47 0.46 0.59 0.62 0.71 0.92 1.14 1.40 1.67 1.99 2.37 2.55 2.66 2.83 3.02 3.06 3.00 2.92 2.75 2.49 2.18 1.91 1.64
0.06 0.04 0.01 0.01 0.01 0.00 0.00 0.00 0.01 0.02 0.02 0.04 0.10 0.25 0.45 0.47 0.54 0.57 0.51 0.46 0.52 0.57 0.57 0.61 0.69 0.78 0.95 1.05 1.20 1.39 1.59 1.84 1.96 1.97 2.08 2.25 2.34 2.35 2.28 2.08 1.81 1.57 1.35 1.15
0.07 0.05 0.01 0.01 0.01 0.01 0.01 0.00 0.01 0.02 0.03 0.07 0.18 0.37 0.58 0.68 0.75 0.80 0.70 0.57 0.51 0.54 0.60 0.64 0.68 0.79 0.97 1.00 1.05 1.10 1.12 1.22 1.33 1.40 1.45 1.46 1.48 1.47 1.45 1.34 1.20 1.10 0.98 0.84
0.04 0.05 0.02 0.01 0.01 0.01 0.01 0.01 0.01 0.03 0.06 0.11 0.19 0.42 0.67 0.82 0.85 0.87 0.76 0.66 0.61 0.57 0.58 0.65 0.64 0.65 0.74 0.79 0.84 0.87 0.80 0.86 0.92 0.91 0.90 0.92 0.97 1.01 0.97 0.85 0.78 0.75 0.72 0.66
0.03 0.05 0.03 0.03 0.02 0.02 0.02 0.02 0.03 0.05 0.05 0.12 0.22 0.50 0.74 0.94 0.95 0.95 0.86 0.71 0.60 0.61 0.63 0.62 0.60 0.55 0.52 0.52 0.60 0.69 0.66 0.64 0.64 0.63 0.64 0.62 0.62 0.64 0.66 0.62 0.58 0.53 0.51 0.50
0.02 0.06 0.07 0.06 0.03 0.02 0.03 0.03 0.04 0.07 0.09 0.13 0.22 0.58 0.79 1.04 1.16 1.20 0.99 0.77 0.75 0.71 0.67 0.62 0.59 0.56 0.52 0.49 0.49 0.51 0.55 0.58 0.56 0.50 0.49 0.45 0.43 0.41 0.42 0.44 0.46 0.43 0.42 0.42
0.03 0.09 0.18 0.16 0.11 0.06 0.05 0.04 0.05 0.05 0.11 0.15 0.26 0.68 0.90 1.07 1.18 1.13 1.00 0.92 0.94 0.90 0.83 0.74 0.64 0.61 0.58 0.53 0.49 0.46 0.49 0.52 0.50 0.45 0.43 0.38 0.36 0.32 0.32 0.32 0.32 0.31 0.30 0.30
0.03 0.09 0.21 0.36 0.31 0.15 0.10 0.07 0.10 0.11 0.16 0.20 0.32 0.61 0.84 1.03 1.15 1.14 1.14 1.05 1.02 1.05 0.97 0.81 0.70 0.64 0.61 0.59 0.54 0.50 0.49 0.47 0.45 0.42 0.39 0.36 0.34 0.32 0.29 0.27 0.25 0.24 0.24 0.24
0.05 0.12 0.15 0.18 0.19 0.16 0.13 0.13 0.14 0.17 0.21 0.30 0.42 0.64 0.87 1.11 1.24 1.35 1.41 1.32 1.19 1.13 1.01 0.88 0.82 0.77 0.67 0.64 0.59 0.55 0.52 0.47 0.40 0.37 0.36 0.37 0.37 0.36 0.33 0.31 0.28 0.27 0.27 0.24
0.03 0.08 0.13 0.17 0.18 0.19 0.18 0.16 0.15 0.21 0.25 0.36 0.55 0.82 1.08 1.24 1.27 1.33 1.39 1.31 1.24 1.22 1.19 1.17 1.11 1.03 0.90 0.75 0.65 0.60 0.55 0.51 0.45 0.44 0.45 0.45 0.43 0.39 0.37 0.35 0.33 0.32 0.29 0.25
0.04 0.07 0.11 0.15 0.14 0.23 0.36 0.29 0.24 0.30 0.36 0.47 0.66 0.81 0.97 1.11 1.24 1.25 1.25 1.30 1.35 1.46 1.50 1.44 1.28 1.13 0.99 0.87 0.80 0.74 0.66 0.61 0.59 0.57 0.53 0.47 0.42 0.39 0.36 0.32 0.33 0.31 0.26 0.20
0.06 0.11 0.14 0.16 0.20 0.39 0.44 0.28 0.29 0.42 0.51 0.54 0.60 0.64 0.80 0.98 1.08 1.11 1.16 1.29 1.38 1.44 1.39 1.29 1.14 1.01 0.95 0.93 0.90 0.80 0.70 0.64 0.60 0.57 0.52 0.43 0.35 0.31 0.30 0.30 0.28 0.22 0.18 0.16
0.05 0.14 0.22 0.24 0.33 0.46 0.52 0.32 0.31 0.45 0.58 0.52 0.58 0.58 0.70 0.77 0.87 1.01 1.10 1.19 1.29 1.26 1.18 1.14 1.09 1.02 1.01 0.99 0.90 0.80 0.72 0.63 0.57 0.51 0.41 0.31 0.25 0.24 0.23 0.21 0.18 0.16 0.16 0.15
0.07 0.13 0.29 0.36 0.43 0.55 0.56 0.28 0.25 0.45 0.77 0.61 0.64 0.64 0.64 0.70 0.87 0.92 0.93 0.92 0.96 0.97 1.02 1.09 1.16 1.19 1.12 0.98 0.79 0.69 0.62 0.51 0.42 0.33 0.26 0.21 0.19 0.15 0.13 0.13 0.14 0.14 0.14 0.12
0.23 0.27 0.37 0.50 0.62 0.66 0.34 0.17 0.29 0.64 0.73 0.63 0.64 0.67 0.66 0.71 0.75 0.64 0.65 0.74 0.82 0.89 0.96 1.02 1.04 1.02 0.94 0.82 0.69 0.62 0.51 0.41 0.29 0.21 0.18 0.15 0.11 0.09 0.08 0.11 0.13 0.12 0.11 0.11
0.37 0.46 0.52 0.57 0.69 0.74 0.32 0.21 0.38 0.49 0.43 0.44 0.49 0.53 0.52 0.53 0.55 0.58 0.60 0.64 0.71 0.82 0.88 0.87 0.82 0.77 0.66 0.55 0.51 0.51 0.42 0.28 0.19 0.15 0.12 0.10 0.07 0.04 0.05 0.11 0.12 0.12 0.13 0.12
0.36 0.42 0.55 0.67 0.76 0.56 0.30 0.27 0.30 0.36 0.36 0.36 0.40 0.43 0.45 0.48 0.52 0.61 0.67 0.70 0.70 0.69 0.70 0.65 0.55 0.48 0.43 0.37 0.36 0.36 0.29 0.19 0.14 0.13 0.12 0.09 0.06 0.06 0.06 0.10 0.12 0.11 0.11 0.10
0.51 0.35 0.43 0.58 0.64 0.46 0.30 0.26 0.26 0.27 0.28 0.30 0.38 0.42 0.42 0.42 0.41 0.47 0.53 0.57 0.56 0.53 0.49 0.42 0.35 0.30 0.27 0.23 0.21 0.20 0.16 0.14 0.15 0.16 0.13 0.11 0.12 0.11 0.09 0.09 0.07 0.07 0.08 0.07
0.47 0.47 0.55 0.66 0.65 0.51 0.41 0.30 0.26 0.28 0.30 0.34 0.38 0.37 0.34 0.30 0.28 0.29 0.32 0.34 0.32 0.30 0.27 0.24 0.21 0.18 0.15 0.12 0.10 0.10 0.09 0.10 0.15 0.14 0.11 0.10 0.11 0.11 0.11 0.10 0.04 0.03 0.04 0.02
0.34 0.43 0.62 0.78 0.63 0.50 0.48 0.39 0.34 0.33 0.30 0.27 0.24 0.24 0.27 0.26 0.25 0.25 0.25 0.24 0.22 0.18 0.16 0.15 0.13 0.11 0.09 0.06 0.05 0.05 0.05 0.07 0.13 0.13 0.10 0.07 0.07 0.07 0.09 0.13 0.11 0.03 0.01 0.01

GEFSCGP_prec_meanprecacc_114.txt.gz
Total_Precipitation_Accumulation
0.00 0.00 0.00 0.00 0.00 0.00 0.00 0.00 0.00 0.00 0.00 0.00 0.01 0.03 0.05 0.07 0.11 0.14 0.15 0.30 0.37 0.40 0.57 0.86 1.34 1.96 2.20 2.69 2.51 2.07 1.78 1.65 1.57 1.54 1.54 1.63 1.79 1.93 2.07 2.21 2.22 2.19 2.14 2.17
0.00 0.00 0.00 0.00 0.00 0.00 0.00 0.00 0.00 0.00 0.01 0.01 0.04 0.08 0.12 0.16 0.20 0.21 0.21 0.33 0.35 0.41 0.72 1.03 1.43 1.83 2.00 2.09 2.16 2.24 2.23 2.21 2.10 2.15 2.38 2.69 2.88 2.96 3.08 3.04 2.99 2.98 2.96 2.93
0.00 0.00 0.00 0.00 0.00 0.00 0.00 0.01 0.01 0.01 0.02 0.04 0.08 0.13 0.16 0.21 0.23 0.22 0.22 0.32 0.40 0.50 0.74 0.97 1.28 1.54 1.90 2.23 2.36 2.49 2.50 2.61 2.79 2.96 3.08 3.42 3.72 3.80 3.65 3.36 3.29 3.21 3.03 2.93
0.00 0.00 0.00 0.00 0.00 0.00 0.00 0.01 0.02 0.02 0.02 0.04 0.08 0.19 0.25 0.30 0.28 0.28 0.31 0.35 0.44 0.54 0.68 0.85 1.06 1.24 1.51 1.88 2.16 2.34 2.53 2.80 3.19 3.64 3.89 3.97 4.09 4.05 3.87 3.60 3.34 3.05 2.79 2.59
0.00 0.00 0.00 0.00 0.00 0.00 0.00 0.00 0.01 0.01 0.01 0.04 0.06 0.14 0.33 0.36 0.33 0.39 0.36 0.38 0.49 0.46 0.61 0.76 0.79 0.91 1.15 1.46 1.71 1.97 2.31 2.74 3.29 3.72 4.08 4.29 4.27 4.08 3.83 3.42 3.06 2.78 2.54 2.30
0.00 0.00 0.00 0.00 0.00 0.00 0.00 0.00 0.01 0.02 0.03 0.05 0.05 0.12 0.33 0.43 0.42 0.43 0.37 0.38 0.47 0.46 0.50 0.62 0.68 0.73 0.92 1.16 1.45 1.69 2.06 2.61 2.99 3.38 3.79 3.92 3.95 3.80 3.55 3.18 2.85 2.59 2.36 2.14
0.01 0.01 0.01 0.01 0.00 0.00 0.00 0.01 0.04 0.06 0.06 0.06 0.06 0.16 0.40 0.48 0.54 0.52 0.49 0.54 0.59 0.51 0.49 0.61 0.64 0.74 0.95 1.17 1.43 1.70 2.03 2.41 2.60 2.71 2.91 3.13 3.20 3.15 3.08 2.90 2.63 2.31 2.02 1.73
0.07 0.05 0.02 0.01 0.01 0.00 0.00 0.01 0.04 0.10 0.09 0.11 0.16 0.35 0.57 0.56 0.61 0.64 0.58 0.52 0.57 0.61 0.60 0.63 0.71 0.81 0.99 1.10 1.25 1.44 1.63 1.89 2.01 2.02 2.14 2.34 2.45 2.47 2.42 2.21 1.94 1.70 1.48 1.26
0.08 0.05 0.02 0.01 0.01 0.01 0.01 0.01 0.01 0.04 0.06 0.12 0.27 0.50 0.70 0.75 0.82 0.87 0.76 0.62 0.55 0.58 0.63 0.68 0.72 0.85 1.03 1.06 1.10 1.14 1.14 1.25 1.36 1.43 1.49 1.52 1.55 1.57 1.54 1.43 1.29 1.18 1.06 0.92
0.04 0.05 0.02 0.01 0.01 0.01 0.01 0.01 0.01 0.04 0.11 0.18 0.27 0.57 0.86 0.95 0.94 0.94 0.84 0.71 0.65 0.61 0.63 0.70 0.70 0.71 0.80 0.84 0.88 0.90 0.82 0.89 0.96 0.96 0.95 0.98 1.05 1.12 1.08 0.94 0.87 0.83 0.78 0.71
0.03 0.05 0.03 0.03 0.02 0.02 0.02 0.02 0.03 0.06 0.09 0.17 0.31 0.66 0.91 1.08 1.07 1.04 0.91 0.74 0.64 0.64 0.67 0.66 0.63 0.59 0.56 0.56 0.63 0.70 0.67 0.66 0.68 0.69 0.71 0.70 0.71 0.75 0.77 0.73 0.66 0.61 0.58 0.55
0.02 0.06 0.07 0.06 0.03 0.02 0.03 0.04 0.04 0.08 0.12 0.15 0.29 0.70 0.89 1.12 1.25 1.27 1.03 0.80 0.77 0.74 0.70 0.65 0.62 0.59 0.55 0.53 0.52 0.53 0.57 0.61 0.60 0.55 0.55 0.53 0.52 0.51 0.53 0.55 0.56 0.51 0.51 0.50
0.03 0.10 0.22 0.22 0.16 0.07 0.05 0.04 0.05 0.06 0.15 0.20 0.34 0.79 0.98 1.12 1.23 1.17 1.02 0.94 0.97 0.93 0.86 0.76 0.67 0.63 0.61 0.57 0.53 0.50 0.53 0.56 0.54 0.48 0.48 0.46 0.45 0.42 0.42 0.43 0.42 0.40 0.39 0.39
0.03 0.11 0.28 0.44 0.37 0.17 0.10 0.08 0.10 0.12 0.20 0.24 0.39 0.72 0.92 1.08 1.18 1.18 1.16 1.07 1.05 1.07 0.99 0.84 0.74 0.68 0.64 0.62 0.59 0.54 0.53 0.51 0.49 0.46 0.45 0.43 0.44 0.43 0.40 0.37 0.34 0.33 0.32 0.32
0.05 0.13 0.16 0.20 0.20 0.17 0.14 0.13 0.14 0.17 0.21 0.33 0.49 0.71 0.92 1.15 1.27 1.37 1.43 1.35 1.21 1.16 1.04 0.90 0.86 0.82 0.71 0.68 0.65 0.60 0.56 0.52 0.46 0.42 0.43 0.47 0.48 0.48 0.45 0.42 0.39 0.39 0.37 0.32
0.04 0.09 0.14 0.18 0.18 0.19 0.18 0.17 0.15 0.21 0.27 0.39 0.59 0.87 1.11 1.26 1.29 1.35 1.41 1.33 1.27 1.24 1.22 1.19 1.16 1.11 0.95 0.79 0.70 0.65 0.60 0.56 0.51 0.51 0.53 0.54 0.51 0.48 0.46 0.44 0.41 0.41 0.38 0.32
0.05 0.09 0.14 0.19 0.15 0.24 0.39 0.30 0.24 0.31 0.37 0.50 0.70 0.85 0.99 1.13 1.27 1.28 1.28 1.34 1.39 1.48 1.53 1.48 1.33 1.19 1.04 0.92 0.84 0.78 0.72 0.67 0.65 0.64 0.60 0.54 0.49 0.46 0.43 0.38 0.39 0.37 0.31 0.26
0.07 0.14 0.18 0.22 0.25 0.46 0.48 0.29 0.30 0.43 0.53 0.56 0.62 0.66 0.81 1.01 1.12 1.15 1.21 1.33 1.44 1.47 1.43 1.34 1.20 1.07 1.00 0.99 0.94 0.83 0.75 0.70 0.67 0.64 0.58 0.49 0.41 0.38 0.38 0.38 0.34 0.28 0.24 0.22
0.05 0.15 0.24 0.29 0.40 0.52 0.57 0.35 0.34 0.48 0.62 0.53 0.59 0.59 0.71 0.79 0.90 1.07 1.16 1.25 1.34 1.29 1.22 1.20 1.17 1.09 1.08 1.05 0.95 0.85 0.77 0.68 0.62 0.57 0.46 0.36 0.30 0.29 0.29 0.27 0.24 0.22 0.22 0.21
0.07 0.14 0.31 0.41 0.50 0.63 0.63 0.32 0.27 0.47 0.81 0.63 0.65 0.65 0.66 0.73 0.92 0.98 1.00 0.98 1.01 1.02 1.07 1.15 1.24 1.27 1.21 1.07 0.87 0.76 0.68 0.57 0.48 0.38 0.30 0.25 0.22 0.18 0.16 0.17 0.18 0.19 0.19 0.17
0.25 0.29 0.41 0.55 0.69 0.73 0.36 0.18 0.30 0.67 0.79 0.65 0.64 0.69 0.69 0.75 0.80 0.69 0.70 0.80 0.87 0.94 1.02 1.07 1.12 1.11 1.03 0.91 0.78 0.70 0.59 0.47 0.34 0.25 0.20 0.17 0.13 0.10 0.10 0.14 0.16 0.16 0.14 0.14
0.39 0.49 0.56 0.61 0.75 0.81 0.33 0.22 0.40 0.52 0.45 0.45 0.49 0.54 0.54 0.55 0.58 0.62 0.65 0.70 0.76 0.86 0.93 0.92 0.89 0.85 0.74 0.64 0.60 0.59 0.50 0.34 0.23 0.18 0.16 0.12 0.09 0.05 0.06 0.13 0.16 0.15 0.16 0.16
0.38 0.43 0.57 0.70 0.80 0.59 0.30 0.27 0.31 0.37 0.37 0.36 0.41 0.43 0.46 0.49 0.54 0.64 0.72 0.75 0.74 0.73 0.74 0.70 0.61 0.54 0.49 0.43 0.43 0.43 0.35 0.24 0.19 0.18 0.17 0.13 0.09 0.08 0.07 0.12 0.14 0.14 0.15 0.13
0.52 0.35 0.44 0.60 0.66 0.46 0.31 0.27 0.27 0.28 0.28 0.30 0.39 0.42 0.42 0.43 0.43 0.50 0.57 0.61 0.61 0.57 0.53 0.47 0.40 0.35 0.32 0.28 0.26 0.24 0.20 0.18 0.19 0.21 0.18 0.15 0.15 0.13 0.11 0.11 0.09 0.10 0.10 0.10
0.48 0.47 0.56 0.68 0.66 0.51 0.42 0.32 0.28 0.29 0.30 0.34 0.38 0.38 0.35 0.30 0.29 0.30 0.34 0.37 0.36 0.33 0.31 0.27 0.25 0.22 0.19 0.15 0.14 0.13 0.12 0.14 0.20 0.19 0.15 0.13 0.13 0.13 0.13 0.11 0.05 0.04 0.05 0.03
0.35 0.44 0.62 0.79 0.64 0.51 0.49 0.41 0.34 0.33 0.30 0.27 0.24 0.24 0.27 0.27 0.25 0.26 0.27 0.27 0.26 0.22 0.20 0.18 0.17 0.15 0.12 0.09 0.08 0.07 0.07 0.10 0.18 0.17 0.13 0.10 0.08 0.08 0.09 0.15 0.12 0.03 0.01 0.01

GEFSCGP_prec_meanprecacc_120.txt.gz
Total_Precipitation_Accumulation
0.00 0.00 0.00 0.00 0.00 0.00 0.00 0.00 0.01 0.01 0.01 0.01 0.02 0.05 0.08 0.09 0.13 0.18 0.20 0.34 0.40 0.44 0.63 0.91 1.41 2.06 2.33 2.82 2.70 2.33 2.08 1.97 1.91 1.87 1.85 1.91 2.08 2.24 2.41 2.54 2.47 2.42 2.34 2.34
0.00 0.00 0.00 0.00 0.00 0.00 0.00 0.00 0.01 0.01 0.01 0.02 0.05 0.10 0.15 0.19 0.24 0.29 0.31 0.43 0.43 0.48 0.80 1.10 1.52 1.92 2.11 2.23 2.32 2.50 2.48 2.43 2.33 2.40 2.63 2.99 3.20 3.27 3.36 3.28 3.21 3.15 3.11 3.07
0.00 0.00 0.00 0.00 0.00 0.00 0.00 0.01 0.01 0.01 0.04 0.05 0.10 0.18 0.21 0.26 0.31 0.29 0.28 0.38 0.46 0.56 0.82 1.04 1.36 1.62 1.95 2.32 2.48 2.64 2.70 2.83 3.01 3.19 3.32 3.72 4.03 4.04 3.89 3.56 3.44 3.35 3.15 3.05
0.00 0.00 0.00 0.00 0.00 0.00 0.00 0.01 0.02 0.02 0.03 0.07 0.10 0.24 0.31 0.37 0.37 0.34 0.37 0.44 0.54 0.65 0.80 0.94 1.12 1.28 1.55 1.92 2.23 2.45 2.66 2.95 3.35 3.86 4.13 4.19 4.32 4.27 4.13 3.84 3.53 3.21 2.93 2.73
0.00 0.00 0.00 0.00 0.00 0.00 0.00 0.00 0.01 0.01 0.02 0.05 0.08 0.18 0.40 0.44 0.40 0.46 0.43 0.47 0.62 0.60 0.71 0.83 0.84 0.94 1.18 1.50 1.74 2.01 2.39 2.83 3.39 3.85 4.23 4.44 4.42 4.22 4.03 3.61 3.23 2.92 2.67 2.42
0.00 0.00 0.00 0.00 0.00 0.00 0.00 0.00 0.01 0.02 0.03 0.06 0.07 0.15 0.39 0.52 0.50 0.51 0.45 0.49 0.61 0.58 0.59 0.68 0.72 0.76 0.95 1.21 1.48 1.71 2.11 2.67 3.05 3.46 3.88 4.02 4.04 3.92 3.70 3.30 2.93 2.66 2.44 2.22
0.02 0.01 0.01 0.01 0.00 0.00 0.00 0.01 0.04 0.07 0.07 0.08 0.08 0.21 0.49 0.62 0.69 0.66 0.63 0.65 0.66 0.57 0.54 0.65 0.66 0.76 0.98 1.19 1.45 1.72 2.07 2.46 2.64 2.75 2.97 3.21 3.27 3.22 3.17 3.00 2.71 2.39 2.09 1.80
0.07 0.05 0.02 0.01 0.01 0.01 0.01 0.01 0.05 0.11 0.11 0.13 0.19 0.42 0.72 0.78 0.81 0.83 0.76 0.65 0.62 0.64 0.63 0.66 0.74 0.82 1.00 1.12 1.26 1.46 1.66 1.92 2.05 2.05 2.18 2.39 2.51 2.53 2.48 2.30 2.05 1.80 1.58 1.36
0.08 0.06 0.02 0.01 0.01 0.01 0.01 0.01 0.02 0.05 0.08 0.15 0.33 0.62 0.90 0.95 1.02 1.03 0.88 0.71 0.60 0.61 0.66 0.71 0.75 0.86 1.05 1.08 1.12 1.16 1.16 1.27 1.37 1.45 1.52 1.56 1.59 1.61 1.60 1.50 1.37 1.28 1.17 1.00
0.04 0.06 0.03 0.02 0.01 0.02 0.01 0.02 0.02 0.06 0.15 0.21 0.35 0.68 1.02 1.14 1.12 1.06 0.94 0.78 0.69 0.65 0.66 0.72 0.71 0.73 0.82 0.86 0.90 0.91 0.83 0.89 0.98 0.98 0.97 1.01 1.08 1.15 1.11 0.98 0.92 0.89 0.85 0.77
0.03 0.05 0.04 0.04 0.02 0.02 0.02 0.03 0.03 0.07 0.11 0.20 0.37 0.77 0.99 1.18 1.18 1.11 0.96 0.78 0.66 0.66 0.68 0.67 0.64 0.59 0.57 0.57 0.63 0.71 0.68 0.67 0.70 0.71 0.73 0.73 0.74 0.78 0.79 0.76 0.70 0.66 0.62 0.58
0.03 0.06 0.08 0.07 0.05 0.03 0.04 0.04 0.05 0.10 0.14 0.18 0.34 0.77 0.98 1.20 1.32 1.34 1.07 0.83 0.80 0.76 0.72 0.66 0.63 0.59 0.56 0.53 0.53 0.54 0.58 0.62 0.62 0.58 0.58 0.57 0.56 0.54 0.57 0.59 0.60 0.56 0.55 0.53
0.04 0.12 0.24 0.25 0.18 0.09 0.07 0.06 0.06 0.08 0.16 0.22 0.39 0.87 1.06 1.17 1.29 1.25 1.09 1.00 1.00 0.94 0.87 0.77 0.68 0.64 0.61 0.57 0.54 0.51 0.54 0.57 0.55 0.50 0.50 0.48 0.48 0.46 0.47 0.47 0.47 0.45 0.44 0.44
0.04 0.12 0.29 0.48 0.40 0.20 0.12 0.09 0.11 0.13 0.22 0.26 0.42 0.76 0.97 1.12 1.24 1.24 1.21 1.10 1.06 1.08 1.00 0.85 0.75 0.69 0.66 0.64 0.60 0.56 0.55 0.53 0.51 0.48 0.47 0.45 0.47 0.46 0.44 0.41 0.39 0.38 0.37 0.37
0.07 0.15 0.18 0.21 0.22 0.20 0.16 0.14 0.15 0.18 0.23 0.35 0.51 0.74 0.94 1.17 1.30 1.40 1.46 1.37 1.23 1.17 1.05 0.91 0.87 0.83 0.72 0.70 0.67 0.63 0.59 0.54 0.48 0.45 0.45 0.49 0.50 0.50 0.47 0.45 0.42 0.42 0.41 0.37
0.06 0.12 0.17 0.20 0.20 0.21 0.19 0.18 0.16 0.22 0.28 0.41 0.61 0.89 1.13 1.27 1.31 1.37 1.43 1.35 1.28 1.25 1.23 1.20 1.18 1.13 0.97 0.82 0.75 0.68 0.62 0.59 0.54 0.53 0.55 0.55 0.53 0.50 0.48 0.46 0.44 0.45 0.43 0.38
0.07 0.11 0.18 0.22 0.17 0.26 0.42 0.32 0.27 0.33 0.39 0.51 0.71 0.86 1.01 1.15 1.27 1.28 1.29 1.35 1.40 1.49 1.55 1.50 1.35 1.22 1.07 0.96 0.89 0.81 0.74 0.71 0.69 0.66 0.62 0.56 0.51 0.48 0.44 0.41 0.42 0.41 0.36 0.31
0.10 0.16 0.20 0.25 0.28 0.51 0.52 0.32 0.32 0.45 0.54 0.57 0.63 0.67 0.82 1.02 1.13 1.16 1.22 1.35 1.45 1.49 1.45 1.36 1.22 1.09 1.02 1.01 0.96 0.86 0.76 0.73 0.69 0.65 0.60 0.51 0.43 0.40 0.40 0.40 0.37 0.32 0.28 0.26
0.07 0.17 0.27 0.33 0.45 0.57 0.61 0.39 0.36 0.51 0.65 0.55 0.60 0.61 0.72 0.79 0.91 1.08 1.18 1.27 1.36 1.31 1.24 1.22 1.19 1.12 1.10 1.08 0.96 0.87 0.79 0.70 0.64 0.59 0.49 0.38 0.33 0.32 0.31 0.30 0.27 0.26 0.25 0.24
0.09 0.15 0.33 0.45 0.55 0.67 0.67 0.35 0.29 0.49 0.84 0.64 0.66 0.66 0.67 0.73 0.93 0.99 1.01 0.99 1.04 1.05 1.09 1.18 1.27 1.31 1.23 1.10 0.90 0.79 0.71 0.59 0.50 0.41 0.33 0.28 0.25 0.21 0.19 0.19 0.20 0.21 0.21 0.20
0.28 0.32 0.43 0.57 0.73 0.79 0.39 0.20 0.32 0.69 0.81 0.66 0.65 0.69 0.69 0.76 0.81 0.70 0.72 0.82 0.90 0.97 1.05 1.11 1.15 1.15 1.06 0.95 0.81 0.73 0.62 0.50 0.36 0.27 0.22 0.19 0.15 0.12 0.11 0.15 0.17 0.17 0.16 0.16
0.44 0.53 0.59 0.65 0.80 0.85 0.35 0.23 0.42 0.53 0.45 0.46 0.50 0.54 0.54 0.55 0.59 0.63 0.67 0.73 0.79 0.90 0.96 0.96 0.93 0.89 0.78 0.68 0.64 0.63 0.54 0.38 0.26 0.20 0.17 0.14 0.10 0.06 0.07 0.14 0.17 0.16 0.17 0.17
0.43 0.49 0.63 0.76 0.85 0.62 0.32 0.28 0.32 0.38 0.38 0.37 0.41 0.43 0.46 0.49 0.55 0.65 0.74 0.78 0.78 0.76 0.77 0.73 0.64 0.58 0.53 0.46 0.47 0.47 0.39 0.28 0.22 0.21 0.20 0.16 0.11 0.09 0.08 0.13 0.15 0.14 0.15 0.13
0.59 0.42 0.52 0.67 0.71 0.50 0.32 0.28 0.28 0.28 0.29 0.31 0.39 0.42 0.42 0.43 0.43 0.51 0.59 0.64 0.64 0.60 0.56 0.50 0.42 0.38 0.35 0.30 0.29 0.27 0.23 0.21 0.23 0.24 0.21 0.18 0.17 0.14 0.11 0.12 0.09 0.10 0.11 0.10
0.56 0.56 0.65 0.75 0.71 0.54 0.43 0.33 0.28 0.29 0.30 0.34 0.38 0.38 0.35 0.31 0.29 0.31 0.36 0.40 0.40 0.37 0.33 0.30 0.27 0.25 0.21 0.17 0.16 0.14 0.13 0.16 0.22 0.21 0.16 0.15 0.13 0.13 0.14 0.11 0.05 0.04 0.05 0.03
0.45 0.52 0.70 0.84 0.67 0.53 0.50 0.42 0.35 0.33 0.30 0.27 0.24 0.24 0.27 0.27 0.26 0.26 0.28 0.29 0.28 0.24 0.21 0.20 0.19 0.17 0.14 0.11 0.09 0.08 0.08 0.11 0.18 0.18 0.14 0.10 0.08 0.08 0.10 0.15 0.12 0.03 0.01 0.01

GEFSCGP_prec_meanprecacc_126.txt.gz
Total_Precipitation_Accumulation
0.00 0.00 0.00 0.00 0.00 0.00 0.00 0.00 0.01 0.01 0.01 0.01 0.03 0.06 0.09 0.10 0.15 0.19 0.21 0.36 0.42 0.46 0.65 0.95 1.46 2.13 2.40 2.88 2.76 2.39 2.14 2.09 2.03 2.02 2.05 2.14 2.35 2.55 2.75 2.84 2.69 2.60 2.50 2.51
0.00 0.00 0.00 0.00 0.00 0.00 0.00 0.00 0.01 0.01 0.02 0.03 0.06 0.11 0.16 0.21 0.26 0.30 0.33 0.45 0.45 0.50 0.84 1.16 1.60 2.02 2.22 2.36 2.46 2.63 2.59 2.53 2.43 2.53 2.82 3.23 3.47 3.53 3.64 3.56 3.45 3.34 3.27 3.21
0.00 0.00 0.00 0.00 0.00 0.00 0.00 0.01 0.01 0.02 0.04 0.07 0.11 0.20 0.23 0.29 0.33 0.31 0.31 0.41 0.48 0.59 0.85 1.09 1.44 1.72 2.07 2.43 2.59 2.78 2.87 2.98 3.15 3.36 3.55 3.98 4.29 4.31 4.18 3.83 3.66 3.52 3.29 3.15
0.00 0.00 0.00 0.00 0.00 0.00 0.00 0.01 0.02 0.02 0.03 0.08 0.11 0.24 0.33 0.40 0.39 0.36 0.40 0.46 0.56 0.67 0.82 0.98 1.16 1.33 1.60 1.97 2.28 2.52 2.74 3.04 3.45 4.00 4.28 4.36 4.52 4.50 4.37 4.06 3.70 3.36 3.06 2.82
0.00 0.00 0.00 0.00 0.00 0.00 0.00 0.00 0.01 0.01 0.02 0.05 0.09 0.19 0.41 0.46 0.42 0.48 0.46 0.49 0.64 0.62 0.74 0.87 0.88 0.98 1.22 1.54 1.77 2.05 2.42 2.86 3.45 3.93 4.34 4.56 4.55 4.36 4.15 3.74 3.34 3.03 2.78 2.53
0.00 0.00 0.00 0.00 0.00 0.00 0.00 0.00 0.01 0.02 0.03 0.06 0.07 0.16 0.40 0.53 0.52 0.53 0.49 0.54 0.65 0.62 0.63 0.71 0.75 0.79 0.98 1.23 1.49 1.73 2.12 2.69 3.10 3.52 3.96 4.13 4.15 4.01 3.78 3.37 3.02 2.76 2.55 2.34
0.02 0.01 0.01 0.01 0.00 0.00 0.00 0.01 0.04 0.07 0.08 0.08 0.08 0.21 0.49 0.63 0.69 0.68 0.66 0.70 0.71 0.61 0.57 0.68 0.69 0.79 1.00 1.21 1.46 1.73 2.07 2.47 2.67 2.80 3.02 3.27 3.34 3.29 3.22 3.05 2.77 2.47 2.19 1.89
0.07 0.05 0.02 0.01 0.01 0.01 0.01 0.01 0.06 0.11 0.11 0.13 0.19 0.42 0.72 0.78 0.82 0.84 0.78 0.68 0.66 0.67 0.66 0.69 0.76 0.85 1.02 1.13 1.27 1.46 1.66 1.94 2.07 2.08 2.22 2.43 2.54 2.56 2.53 2.36 2.10 1.86 1.66 1.44
0.08 0.06 0.02 0.01 0.01 0.01 0.01 0.01 0.02 0.05 0.08 0.15 0.33 0.62 0.90 0.95 1.03 1.05 0.91 0.73 0.63 0.64 0.68 0.73 0.76 0.87 1.06 1.09 1.13 1.17 1.17 1.28 1.40 1.47 1.54 1.58 1.61 1.64 1.63 1.54 1.42 1.32 1.22 1.07
0.04 0.06 0.03 0.02 0.01 0.02 0.02 0.02 0.02 0.06 0.15 0.22 0.35 0.68 1.02 1.14 1.13 1.07 0.96 0.82 0.73 0.68 0.69 0.74 0.73 0.74 0.82 0.86 0.90 0.92 0.84 0.90 0.99 0.99 0.99 1.03 1.10 1.18 1.14 1.01 0.97 0.93 0.88 0.81
0.03 0.05 0.04 0.04 0.03 0.03 0.03 0.03 0.04 0.07 0.11 0.20 0.37 0.77 0.99 1.19 1.18 1.11 0.97 0.80 0.68 0.68 0.70 0.68 0.65 0.60 0.57 0.57 0.63 0.71 0.68 0.67 0.70 0.72 0.74 0.74 0.76 0.80 0.82 0.78 0.73 0.68 0.64 0.60
0.03 0.06 0.08 0.07 0.05 0.04 0.04 0.04 0.05 0.10 0.14 0.18 0.34 0.78 0.98 1.20 1.33 1.34 1.08 0.84 0.81 0.77 0.73 0.67 0.64 0.60 0.56 0.53 0.53 0.54 0.58 0.62 0.62 0.58 0.59 0.58 0.57 0.57 0.59 0.62 0.62 0.58 0.57 0.55
0.04 0.12 0.24 0.25 0.18 0.09 0.07 0.06 0.07 0.08 0.16 0.22 0.39 0.87 1.06 1.17 1.30 1.25 1.09 1.00 1.01 0.95 0.88 0.79 0.70 0.65 0.62 0.58 0.54 0.51 0.54 0.57 0.56 0.50 0.51 0.49 0.50 0.48 0.49 0.50 0.49 0.46 0.45 0.45
0.04 0.12 0.29 0.48 0.41 0.21 0.13 0.09 0.12 0.14 0.22 0.26 0.43 0.76 0.97 1.13 1.24 1.25 1.22 1.11 1.07 1.10 1.02 0.88 0.78 0.71 0.67 0.64 0.60 0.57 0.55 0.53 0.51 0.49 0.47 0.46 0.48 0.48 0.46 0.44 0.42 0.40 0.39 0.40
0.07 0.16 0.18 0.22 0.22 0.20 0.16 0.14 0.15 0.18 0.23 0.35 0.52 0.74 0.95 1.17 1.30 1.41 1.47 1.38 1.24 1.18 1.07 0.93 0.89 0.85 0.74 0.72 0.69 0.64 0.60 0.55 0.49 0.47 0.47 0.50 0.52 0.53 0.50 0.48 0.46 0.45 0.43 0.40
0.07 0.13 0.18 0.21 0.20 0.21 0.20 0.18 0.16 0.22 0.28 0.41 0.62 0.90 1.13 1.28 1.31 1.38 1.44 1.36 1.30 1.27 1.25 1.22 1.21 1.16 1.00 0.86 0.78 0.70 0.63 0.60 0.55 0.56 0.57 0.57 0.55 0.52 0.51 0.49 0.47 0.48 0.45 0.41
0.07 0.12 0.19 0.23 0.17 0.27 0.42 0.32 0.27 0.33 0.39 0.52 0.72 0.87 1.02 1.15 1.28 1.29 1.30 1.36 1.41 1.51 1.57 1.53 1.39 1.26 1.10 0.98 0.93 0.84 0.76 0.73 0.71 0.69 0.65 0.58 0.53 0.50 0.47 0.43 0.44 0.44 0.39 0.33
0.10 0.17 0.21 0.26 0.29 0.51 0.53 0.33 0.33 0.45 0.55 0.57 0.63 0.67 0.82 1.02 1.13 1.16 1.23 1.37 1.47 1.51 1.48 1.40 1.25 1.12 1.05 1.04 1.00 0.90 0.80 0.78 0.73 0.68 0.63 0.53 0.45 0.43 0.43 0.43 0.40 0.35 0.31 0.28
0.08 0.18 0.28 0.34 0.46 0.58 0.62 0.39 0.37 0.52 0.66 0.56 0.61 0.61 0.74 0.81 0.92 1.09 1.19 1.29 1.39 1.35 1.29 1.27 1.23 1.15 1.13 1.10 0.99 0.90 0.83 0.73 0.67 0.62 0.52 0.41 0.35 0.35 0.35 0.33 0.30 0.29 0.28 0.27
0.09 0.17 0.34 0.46 0.55 0.68 0.67 0.35 0.29 0.50 0.84 0.65 0.66 0.66 0.68 0.75 0.94 1.01 1.03 1.01 1.06 1.08 1.14 1.21 1.31 1.33 1.25 1.12 0.91 0.82 0.74 0.62 0.52 0.43 0.36 0.31 0.28 0.24 0.21 0.22 0.23 0.24 0.25 0.23
0.29 0.33 0.44 0.58 0.73 0.79 0.39 0.20 0.33 0.69 0.81 0.66 0.66 0.70 0.70 0.77 0.82 0.71 0.73 0.83 0.92 1.00 1.08 1.13 1.17 1.16 1.08 0.97 0.83 0.76 0.66 0.53 0.38 0.29 0.25 0.22 0.18 0.15 0.14 0.16 0.19 0.19 0.18 0.18
0.46 0.55 0.61 0.67 0.81 0.86 0.36 0.24 0.44 0.55 0.46 0.47 0.50 0.54 0.55 0.57 0.59 0.64 0.68 0.75 0.82 0.93 0.99 0.98 0.94 0.91 0.81 0.70 0.66 0.65 0.57 0.40 0.27 0.22 0.20 0.17 0.13 0.09 0.09 0.16 0.18 0.17 0.18 0.18
0.45 0.51 0.65 0.78 0.87 0.63 0.33 0.30 0.34 0.39 0.39 0.37 0.42 0.44 0.47 0.50 0.56 0.66 0.76 0.80 0.80 0.78 0.78 0.75 0.66 0.61 0.56 0.49 0.49 0.49 0.42 0.30 0.24 0.22 0.22 0.19 0.15 0.12 0.10 0.14 0.15 0.15 0.16 0.14
0.60 0.43 0.53 0.69 0.74 0.51 0.33 0.29 0.28 0.29 0.29 0.31 0.39 0.43 0.43 0.43 0.43 0.51 0.60 0.65 0.66 0.62 0.57 0.51 0.45 0.41 0.37 0.32 0.30 0.29 0.25 0.23 0.25 0.26 0.24 0.22 0.21 0.17 0.12 0.12 0.09 0.10 0.11 0.10
0.57 0.57 0.66 0.76 0.73 0.55 0.44 0.33 0.29 0.29 0.30 0.34 0.39 0.38 0.35 0.31 0.30 0.32 0.38 0.42 0.41 0.38 0.35 0.32 0.29 0.27 0.23 0.19 0.18 0.18 0.17 0.18 0.25 0.24 0.19 0.17 0.15 0.15 0.15 0.12 0.05 0.05 0.06 0.03
0.46 0.53 0.71 0.85 0.68 0.53 0.51 0.42 0.35 0.33 0.30 0.27 0.24 0.24 0.27 0.27 0.26 0.27 0.29 0.30 0.29 0.25 0.22 0.21 0.20 0.18 0.16 0.14 0.12 0.10 0.09 0.12 0.20 0.20 0.16 0.11 0.09 0.09 0.10 0.15 0.12 0.03 0.02 0.02

GEFSCGP_prec_meanprecacc_132.txt.gz
Total_Precipitation_Accumulation
0.00 0.00 0.00 0.00 0.00 0.00 0.00 0.00 0.01 0.01 0.01 0.01 0.03 0.06 0.09 0.11 0.16 0.20 0.22 0.36 0.44 0.47 0.66 0.97 1.48 2.15 2.42 2.91 2.81 2.44 2.19 2.14 2.08 2.08 2.13 2.22 2.43 2.65 2.85 2.96 2.82 2.75 2.67 2.66
0.00 0.00 0.00 0.00 0.00 0.00 0.00 0.00 0.01 0.01 0.02 0.03 0.07 0.12 0.17 0.22 0.28 0.31 0.34 0.46 0.46 0.51 0.85 1.18 1.61 2.04 2.24 2.38 2.49 2.66 2.64 2.59 2.48 2.57 2.87 3.30 3.55 3.61 3.72 3.65 3.57 3.48 3.40 3.34
0.00 0.00 0.00 0.00 0.00 0.00 0.00 0.01 0.01 0.02 0.04 0.07 0.12 0.21 0.24 0.31 0.35 0.33 0.33 0.42 0.49 0.60 0.86 1.10 1.45 1.73 2.09 2.45 2.61 2.81 2.90 3.02 3.19 3.40 3.60 4.04 4.36 4.39 4.26 3.90 3.74 3.59 3.36 3.23
0.00 0.00 0.00 0.00 0.00 0.00 0.00 0.01 0.02 0.02 0.03 0.08 0.11 0.26 0.34 0.41 0.41 0.37 0.40 0.47 0.57 0.68 0.84 0.99 1.18 1.34 1.61 1.99 2.30 2.53 2.76 3.06 3.48 4.02 4.32 4.42 4.59 4.57 4.44 4.12 3.77 3.43 3.14 2.92
0.00 0.00 0.00 0.00 0.00 0.00 0.00 0.00 0.01 0.01 0.02 0.05 0.09 0.19 0.42 0.47 0.43 0.49 0.47 0.50 0.65 0.63 0.76 0.89 0.89 0.99 1.23 1.55 1.78 2.06 2.43 2.88 3.46 3.95 4.37 4.60 4.60 4.43 4.23 3.81 3.41 3.10 2.88 2.63
0.00 0.00 0.00 0.00 0.00 0.00 0.00 0.00 0.01 0.02 0.04 0.07 0.08 0.16 0.40 0.53 0.52 0.54 0.50 0.55 0.67 0.64 0.65 0.72 0.75 0.80 1.00 1.24 1.49 1.73 2.13 2.70 3.10 3.53 3.97 4.15 4.19 4.06 3.83 3.44 3.10 2.83 2.62 2.40
0.02 0.01 0.01 0.01 0.00 0.00 0.00 0.01 0.04 0.08 0.08 0.08 0.08 0.21 0.49 0.63 0.70 0.69 0.67 0.71 0.73 0.64 0.59 0.69 0.70 0.80 1.01 1.21 1.47 1.74 2.08 2.48 2.68 2.81 3.04 3.28 3.35 3.31 3.25 3.09 2.82 2.52 2.23 1.94
0.07 0.05 0.02 0.01 0.01 0.01 0.01 0.01 0.06 0.12 0.11 0.13 0.19 0.42 0.72 0.78 0.82 0.85 0.79 0.69 0.68 0.69 0.68 0.71 0.78 0.86 1.03 1.14 1.29 1.48 1.68 1.94 2.08 2.09 2.23 2.44 2.55 2.58 2.54 2.37 2.12 1.89 1.68 1.48
0.08 0.06 0.02 0.01 0.01 0.01 0.01 0.01 0.02 0.05 0.08 0.16 0.33 0.62 0.90 0.96 1.03 1.05 0.92 0.74 0.64 0.66 0.72 0.76 0.79 0.90 1.07 1.10 1.15 1.18 1.18 1.29 1.40 1.47 1.54 1.59 1.63 1.66 1.64 1.56 1.44 1.35 1.24 1.10
0.04 0.06 0.03 0.02 0.02 0.02 0.02 0.02 0.02 0.06 0.16 0.22 0.35 0.68 1.02 1.14 1.13 1.07 0.96 0.82 0.74 0.70 0.71 0.77 0.77 0.78 0.85 0.88 0.91 0.92 0.84 0.91 0.99 1.00 0.99 1.04 1.12 1.19 1.16 1.03 0.98 0.95 0.91 0.84
0.03 0.05 0.04 0.04 0.03 0.03 0.03 0.03 0.04 0.07 0.11 0.21 0.38 0.77 1.00 1.19 1.18 1.11 0.97 0.80 0.69 0.69 0.72 0.71 0.69 0.63 0.59 0.58 0.64 0.71 0.68 0.68 0.70 0.72 0.75 0.75 0.78 0.82 0.83 0.80 0.74 0.70 0.65 0.63
0.03 0.06 0.08 0.07 0.05 0.04 0.04 0.04 0.05 0.10 0.14 0.18 0.35 0.78 0.98 1.20 1.33 1.34 1.08 0.84 0.82 0.78 0.74 0.69 0.66 0.62 0.57 0.54 0.53 0.54 0.58 0.62 0.62 0.58 0.60 0.59 0.59 0.58 0.60 0.63 0.64 0.60 0.59 0.58
0.04 0.12 0.24 0.25 0.18 0.10 0.07 0.06 0.07 0.08 0.16 0.23 0.40 0.87 1.06 1.17 1.30 1.26 1.10 1.01 1.02 0.96 0.89 0.80 0.71 0.66 0.63 0.59 0.54 0.51 0.54 0.57 0.56 0.51 0.51 0.50 0.51 0.50 0.50 0.51 0.50 0.49 0.48 0.49
0.05 0.12 0.30 0.48 0.41 0.21 0.13 0.09 0.12 0.14 0.23 0.27 0.43 0.77 0.97 1.13 1.25 1.26 1.23 1.12 1.09 1.11 1.03 0.89 0.80 0.74 0.69 0.66 0.61 0.57 0.56 0.54 0.52 0.49 0.48 0.48 0.50 0.50 0.47 0.45 0.44 0.42 0.42 0.43
0.07 0.17 0.19 0.22 0.22 0.20 0.16 0.15 0.15 0.18 0.23 0.35 0.52 0.75 0.95 1.17 1.30 1.42 1.48 1.38 1.25 1.19 1.08 0.95 0.92 0.89 0.79 0.76 0.71 0.65 0.60 0.55 0.50 0.48 0.48 0.52 0.54 0.54 0.52 0.50 0.48 0.47 0.45 0.41
0.07 0.13 0.19 0.22 0.20 0.21 0.20 0.18 0.16 0.22 0.28 0.41 0.62 0.90 1.14 1.28 1.32 1.38 1.44 1.37 1.31 1.28 1.26 1.24 1.24 1.21 1.04 0.90 0.81 0.72 0.65 0.61 0.57 0.57 0.58 0.59 0.57 0.54 0.53 0.51 0.50 0.51 0.49 0.43
0.08 0.12 0.20 0.24 0.17 0.27 0.42 0.32 0.27 0.33 0.39 0.52 0.73 0.88 1.02 1.15 1.28 1.29 1.31 1.37 1.43 1.52 1.58 1.55 1.43 1.31 1.14 1.02 0.96 0.87 0.79 0.75 0.73 0.71 0.67 0.60 0.54 0.53 0.51 0.46 0.47 0.47 0.43 0.38
0.10 0.18 0.22 0.27 0.29 0.52 0.53 0.33 0.33 0.46 0.55 0.57 0.64 0.67 0.82 1.02 1.14 1.17 1.24 1.38 1.49 1.53 1.50 1.42 1.29 1.16 1.09 1.07 1.03 0.93 0.84 0.81 0.76 0.70 0.65 0.55 0.47 0.47 0.48 0.46 0.43 0.39 0.35 0.33
0.08 0.18 0.29 0.35 0.47 0.58 0.62 0.40 0.37 0.53 0.67 0.56 0.61 0.62 0.75 0.83 0.96 1.16 1.25 1.33 1.43 1.39 1.32 1.30 1.28 1.19 1.16 1.13 1.02 0.93 0.87 0.79 0.73 0.66 0.54 0.43 0.37 0.39 0.39 0.37 0.35 0.34 0.33 0.32
0.10 0.17 0.35 0.47 0.56 0.68 0.68 0.36 0.30 0.51 0.86 0.65 0.66 0.67 0.69 0.77 1.00 1.08 1.10 1.06 1.10 1.12 1.17 1.25 1.34 1.36 1.29 1.16 0.94 0.84 0.78 0.67 0.58 0.47 0.39 0.34 0.31 0.28 0.26 0.26 0.28 0.29 0.30 0.27
0.29 0.33 0.45 0.60 0.75 0.80 0.40 0.21 0.34 0.72 0.83 0.67 0.66 0.71 0.71 0.79 0.86 0.75 0.77 0.87 0.96 1.03 1.10 1.15 1.19 1.19 1.11 0.99 0.85 0.79 0.69 0.56 0.42 0.31 0.27 0.25 0.21 0.18 0.18 0.21 0.24 0.24 0.22 0.23
0.47 0.56 0.62 0.69 0.83 0.88 0.37 0.24 0.45 0.56 0.47 0.47 0.50 0.55 0.56 0.59 0.63 0.67 0.70 0.77 0.84 0.95 1.01 1.00 0.96 0.93 0.83 0.73 0.69 0.68 0.60 0.42 0.29 0.24 0.22 0.19 0.15 0.11 0.12 0.19 0.21 0.20 0.22 0.22
0.47 0.54 0.68 0.81 0.90 0.65 0.33 0.30 0.34 0.40 0.39 0.37 0.43 0.45 0.48 0.52 0.58 0.68 0.78 0.83 0.84 0.81 0.81 0.77 0.68 0.63 0.58 0.52 0.51 0.52 0.44 0.32 0.26 0.24 0.24 0.21 0.17 0.15 0.13 0.16 0.18 0.18 0.19 0.17
0.61 0.45 0.55 0.72 0.77 0.53 0.35 0.30 0.29 0.29 0.30 0.32 0.40 0.43 0.43 0.43 0.44 0.52 0.62 0.69 0.70 0.66 0.60 0.54 0.46 0.43 0.40 0.35 0.33 0.32 0.28 0.25 0.27 0.29 0.26 0.25 0.24 0.20 0.15 0.14 0.11 0.12 0.13 0.14
0.57 0.57 0.67 0.77 0.74 0.56 0.44 0.34 0.29 0.30 0.30 0.35 0.39 0.38 0.35 0.31 0.30 0.32 0.39 0.44 0.44 0.40 0.37 0.33 0.31 0.28 0.25 0.22 0.20 0.20 0.20 0.21 0.28 0.26 0.21 0.19 0.17 0.17 0.16 0.13 0.06 0.05 0.07 0.05
0.46 0.53 0.72 0.86 0.69 0.54 0.51 0.42 0.35 0.33 0.31 0.28 0.24 0.25 0.28 0.28 0.27 0.28 0.30 0.31 0.30 0.27 0.24 0.23 0.22 0.20 0.18 0.17 0.15 0.13 0.11 0.13 0.22 0.22 0.18 0.13 0.10 0.10 0.11 0.16 0.12 0.03 0.02 0.02

GEFSCGP_prec_meanprecacc_138.txt.gz
Total_Precipitation_Accumulation
0.00 0.00 0.00 0.00 0.00 0.00 0.00 0.00 0.01 0.01 0.01 0.01 0.04 0.10 0.14 0.13 0.20 0.24 0.24 0.38 0.45 0.49 0.70 1.02 1.52 2.17 2.45 2.95 2.83 2.46 2.22 2.18 2.13 2.13 2.18 2.28 2.50 2.73 2.92 3.03 2.91 2.83 2.75 2.73
0.00 0.00 0.00 0.00 0.00 0.00 0.00 0.00 0.02 0.02 0.03 0.03 0.08 0.13 0.18 0.23 0.29 0.33 0.35 0.47 0.47 0.53 0.87 1.25 1.67 2.07 2.26 2.41 2.51 2.68 2.66 2.61 2.51 2.61 2.90 3.34 3.59 3.66 3.77 3.72 3.65 3.53 3.44 3.38
0.00 0.00 0.00 0.00 0.00 0.00 0.00 0.01 0.02 0.02 0.05 0.07 0.13 0.23 0.25 0.32 0.36 0.34 0.33 0.42 0.50 0.61 0.87 1.12 1.47 1.75 2.10 2.47 2.63 2.82 2.91 3.03 3.21 3.42 3.62 4.07 4.39 4.44 4.30 3.94 3.78 3.62 3.38 3.24
0.00 0.00 0.00 0.00 0.00 0.00 0.00 0.01 0.02 0.02 0.03 0.08 0.12 0.29 0.38 0.44 0.42 0.38 0.41 0.47 0.57 0.69 0.85 0.99 1.18 1.35 1.62 2.00 2.31 2.54 2.77 3.07 3.49 4.04 4.34 4.44 4.62 4.61 4.47 4.15 3.80 3.45 3.16 2.93
0.00 0.00 0.00 0.00 0.00 0.00 0.00 0.00 0.01 0.01 0.02 0.07 0.11 0.22 0.49 0.56 0.51 0.52 0.48 0.51 0.66 0.65 0.77 0.89 0.90 0.99 1.24 1.55 1.78 2.07 2.44 2.89 3.47 3.97 4.39 4.63 4.64 4.47 4.27 3.87 3.47 3.16 2.91 2.66
0.00 0.00 0.00 0.00 0.00 0.00 0.00 0.00 0.01 0.02 0.05 0.11 0.12 0.20 0.49 0.66 0.64 0.60 0.52 0.57 0.68 0.65 0.66 0.73 0.77 0.81 1.01 1.24 1.50 1.74 2.14 2.71 3.11 3.54 3.99 4.17 4.21 4.10 3.88 3.49 3.15 2.89 2.67 2.44
0.02 0.01 0.01 0.01 0.00 0.00 0.00 0.01 0.06 0.12 0.12 0.14 0.11 0.24 0.56 0.71 0.76 0.75 0.73 0.76 0.75 0.65 0.61 0.70 0.71 0.80 1.01 1.22 1.47 1.74 2.09 2.49 2.69 2.82 3.05 3.30 3.38 3.34 3.29 3.13 2.85 2.55 2.26 1.96
0.07 0.05 0.02 0.01 0.01 0.01 0.01 0.01 0.09 0.19 0.18 0.20 0.23 0.46 0.77 0.81 0.84 0.86 0.81 0.73 0.70 0.71 0.70 0.71 0.78 0.87 1.04 1.15 1.29 1.49 1.68 1.95 2.09 2.10 2.24 2.46 2.57 2.60 2.57 2.40 2.15 1.92 1.71 1.50
0.08 0.07 0.02 0.01 0.01 0.01 0.01 0.01 0.03 0.07 0.09 0.19 0.39 0.68 0.97 0.99 1.06 1.07 0.93 0.75 0.65 0.67 0.72 0.76 0.79 0.90 1.08 1.11 1.16 1.20 1.20 1.31 1.43 1.50 1.56 1.60 1.64 1.68 1.67 1.58 1.46 1.37 1.26 1.12
0.05 0.06 0.03 0.02 0.02 0.02 0.02 0.02 0.03 0.06 0.17 0.25 0.39 0.75 1.17 1.24 1.16 1.09 0.97 0.83 0.74 0.70 0.72 0.78 0.78 0.79 0.86 0.90 0.94 0.96 0.87 0.94 1.02 1.01 1.00 1.05 1.14 1.22 1.19 1.06 1.01 0.97 0.93 0.86
0.03 0.05 0.04 0.04 0.03 0.03 0.03 0.03 0.04 0.07 0.12 0.23 0.42 0.85 1.09 1.26 1.24 1.14 0.99 0.81 0.69 0.69 0.72 0.71 0.70 0.64 0.60 0.60 0.65 0.72 0.69 0.68 0.71 0.73 0.76 0.77 0.80 0.85 0.86 0.83 0.77 0.72 0.68 0.65
0.03 0.07 0.09 0.08 0.05 0.04 0.04 0.04 0.05 0.11 0.15 0.18 0.37 0.84 1.01 1.23 1.36 1.37 1.10 0.85 0.83 0.78 0.75 0.70 0.67 0.63 0.58 0.55 0.54 0.55 0.59 0.63 0.63 0.59 0.61 0.62 0.62 0.62 0.64 0.66 0.66 0.62 0.60 0.59
0.05 0.12 0.26 0.28 0.21 0.10 0.07 0.06 0.07 0.08 0.17 0.23 0.42 0.93 1.09 1.21 1.35 1.30 1.13 1.02 1.03 0.97 0.91 0.82 0.74 0.69 0.66 0.61 0.55 0.52 0.55 0.59 0.56 0.51 0.53 0.53 0.53 0.52 0.53 0.54 0.52 0.50 0.49 0.51
0.05 0.13 0.32 0.54 0.46 0.22 0.13 0.10 0.12 0.14 0.24 0.28 0.45 0.81 1.02 1.19 1.32 1.31 1.26 1.13 1.10 1.11 1.04 0.91 0.82 0.75 0.70 0.67 0.62 0.59 0.58 0.55 0.53 0.51 0.50 0.50 0.52 0.52 0.50 0.48 0.46 0.43 0.43 0.45
0.08 0.18 0.20 0.23 0.24 0.21 0.16 0.15 0.15 0.18 0.24 0.37 0.54 0.78 1.02 1.23 1.36 1.45 1.49 1.40 1.26 1.20 1.09 0.97 0.94 0.91 0.80 0.78 0.74 0.68 0.63 0.58 0.52 0.50 0.50 0.53 0.56 0.56 0.54 0.53 0.51 0.49 0.46 0.43
0.08 0.15 0.20 0.23 0.20 0.22 0.20 0.18 0.16 0.22 0.28 0.41 0.63 0.93 1.17 1.31 1.35 1.41 1.46 1.39 1.33 1.30 1.28 1.26 1.27 1.24 1.07 0.93 0.85 0.75 0.67 0.64 0.59 0.59 0.60 0.60 0.59 0.56 0.55 0.54 0.53 0.53 0.51 0.46
0.08 0.13 0.22 0.25 0.18 0.28 0.44 0.33 0.27 0.33 0.39 0.52 0.74 0.91 1.04 1.18 1.33 1.34 1.33 1.39 1.44 1.54 1.60 1.57 1.46 1.35 1.19 1.06 1.00 0.90 0.82 0.77 0.75 0.72 0.68 0.61 0.56 0.55 0.52 0.48 0.49 0.50 0.48 0.44
0.11 0.19 0.24 0.28 0.32 0.57 0.57 0.34 0.34 0.46 0.55 0.58 0.65 0.70 0.86 1.07 1.18 1.20 1.26 1.40 1.51 1.54 1.51 1.45 1.32 1.19 1.12 1.09 1.05 0.96 0.87 0.83 0.78 0.72 0.66 0.56 0.49 0.50 0.51 0.50 0.49 0.45 0.41 0.40
0.08 0.19 0.31 0.37 0.52 0.63 0.65 0.41 0.39 0.54 0.69 0.57 0.62 0.65 0.78 0.85 0.99 1.21 1.30 1.38 1.47 1.42 1.35 1.34 1.31 1.22 1.19 1.15 1.05 0.96 0.91 0.82 0.76 0.69 0.57 0.45 0.40 0.42 0.43 0.43 0.43 0.42 0.40 0.39
0.10 0.18 0.37 0.50 0.63 0.76 0.74 0.38 0.31 0.53 0.92 0.68 0.68 0.69 0.72 0.79 1.04 1.14 1.15 1.12 1.16 1.18 1.23 1.30 1.38 1.40 1.33 1.20 0.98 0.88 0.82 0.71 0.61 0.50 0.41 0.37 0.34 0.32 0.31 0.32 0.35 0.36 0.37 0.35
0.31 0.35 0.46 0.62 0.81 0.87 0.45 0.23 0.35 0.77 0.91 0.71 0.68 0.73 0.73 0.83 0.92 0.80 0.81 0.93 1.02 1.09 1.16 1.22 1.25 1.25 1.15 1.04 0.89 0.83 0.74 0.62 0.46 0.34 0.30 0.28 0.26 0.23 0.23 0.28 0.32 0.33 0.31 0.30
0.49 0.58 0.65 0.73 0.90 0.97 0.41 0.29 0.49 0.61 0.51 0.49 0.52 0.57 0.59 0.63 0.68 0.73 0.74 0.80 0.87 0.98 1.05 1.04 1.00 0.96 0.87 0.77 0.74 0.74 0.66 0.47 0.33 0.27 0.25 0.22 0.20 0.14 0.15 0.25 0.28 0.27 0.30 0.29
0.49 0.56 0.71 0.86 0.97 0.70 0.35 0.33 0.36 0.41 0.41 0.39 0.45 0.47 0.49 0.54 0.60 0.71 0.80 0.85 0.85 0.83 0.84 0.81 0.71 0.66 0.63 0.58 0.59 0.59 0.49 0.35 0.29 0.27 0.28 0.25 0.21 0.18 0.16 0.20 0.23 0.23 0.25 0.23
0.64 0.46 0.57 0.75 0.80 0.56 0.36 0.31 0.30 0.30 0.30 0.33 0.42 0.45 0.44 0.45 0.45 0.54 0.64 0.70 0.72 0.68 0.63 0.57 0.50 0.47 0.45 0.41 0.38 0.36 0.30 0.28 0.31 0.32 0.30 0.29 0.28 0.24 0.18 0.17 0.14 0.15 0.17 0.18
0.59 0.59 0.71 0.82 0.79 0.59 0.48 0.35 0.30 0.31 0.31 0.37 0.42 0.40 0.37 0.33 0.32 0.34 0.41 0.47 0.47 0.43 0.40 0.37 0.36 0.33 0.28 0.25 0.23 0.23 0.22 0.23 0.31 0.29 0.24 0.22 0.21 0.20 0.19 0.16 0.09 0.08 0.09 0.08
0.48 0.56 0.77 0.91 0.72 0.56 0.53 0.43 0.35 0.34 0.31 0.30 0.26 0.26 0.30 0.30 0.29 0.30 0.34 0.35 0.33 0.29 0.26 0.27 0.27 0.25 0.22 0.21 0.18 0.15 0.13 0.16 0.25 0.25 0.20 0.15 0.12 0.12 0.13 0.17 0.13 0.05 0.03 0.03

GEFSCGP_prec_meanprecacc_144.txt.gz
Total_Precipitation_Accumulation
0.00 0.00 0.00 0.00 0.00 0.00 0.00 0.00 0.02 0.04 0.03 0.05 0.10 0.16 0.26 0.25 0.31 0.38 0.33 0.45 0.52 0.57 0.80 1.11 1.62 2.33 2.60 3.06 2.92 2.49 2.26 2.22 2.16 2.17 2.22 2.31 2.53 2.75 2.95 3.06 2.93 2.86 2.79 2.79
0.00 0.00 0.00 0.00 0.00 0.00 0.00 0.01 0.02 0.03 0.04 0.04 0.13 0.21 0.30 0.37 0.44 0.46 0.44 0.53 0.54 0.60 0.94 1.31 1.75 2.16 2.36 2.48 2.57 2.72 2.69 2.64 2.54 2.63 2.93 3.36 3.62 3.68 3.79 3.76 3.69 3.57 3.48 3.42
0.00 0.00 0.00 0.00 0.00 0.00 0.00 0.01 0.02 0.03 0.05 0.09 0.18 0.32 0.35 0.45 0.55 0.48 0.41 0.49 0.57 0.65 0.90 1.16 1.53 1.80 2.16 2.52 2.66 2.85 2.94 3.06 3.23 3.43 3.64 4.09 4.42 4.46 4.33 3.98 3.81 3.63 3.39 3.25
0.00 0.00 0.00 0.00 0.00 0.00 0.00 0.01 0.03 0.03 0.04 0.10 0.15 0.36 0.49 0.58 0.60 0.58 0.53 0.55 0.67 0.76 0.89 1.03 1.24 1.41 1.68 2.04 2.33 2.58 2.81 3.10 3.51 4.06 4.36 4.46 4.64 4.64 4.51 4.18 3.82 3.46 3.16 2.94
0.00 0.00 0.00 0.00 0.00 0.00 0.01 0.01 0.01 0.02 0.03 0.10 0.15 0.28 0.63 0.73 0.66 0.65 0.58 0.61 0.75 0.74 0.84 0.94 0.94 1.05 1.31 1.59 1.81 2.14 2.54 2.95 3.50 3.98 4.41 4.64 4.65 4.48 4.29 3.88 3.49 3.18 2.93 2.67
0.00 0.00 0.00 0.00 0.00 0.00 0.00 0.00 0.01 0.03 0.06 0.13 0.14 0.24 0.58 0.77 0.73 0.67 0.59 0.68 0.86 0.79 0.71 0.77 0.80 0.85 1.03 1.26 1.51 1.76 2.16 2.73 3.14 3.56 4.01 4.18 4.22 4.10 3.88 3.50 3.17 2.91 2.70 2.47
0.02 0.01 0.01 0.01 0.00 0.00 0.00 0.01 0.07 0.13 0.15 0.16 0.13 0.28 0.66 0.82 0.85 0.83 0.79 0.87 0.89 0.74 0.64 0.72 0.72 0.82 1.02 1.23 1.48 1.75 2.09 2.49 2.70 2.84 3.08 3.32 3.39 3.35 3.30 3.14 2.87 2.58 2.30 1.99
0.07 0.06 0.02 0.01 0.01 0.01 0.01 0.02 0.10 0.21 0.22 0.23 0.27 0.55 0.93 0.95 0.91 0.95 0.89 0.82 0.78 0.75 0.72 0.73 0.79 0.87 1.05 1.16 1.30 1.49 1.69 1.96 2.10 2.12 2.27 2.48 2.59 2.62 2.59 2.42 2.17 1.94 1.74 1.53
0.09 0.08 0.02 0.01 0.01 0.01 0.01 0.01 0.04 0.08 0.11 0.23 0.50 0.84 1.10 1.12 1.15 1.16 1.05 0.86 0.72 0.72 0.75 0.78 0.80 0.91 1.09 1.12 1.18 1.23 1.23 1.34 1.45 1.52 1.58 1.63 1.67 1.71 1.70 1.61 1.48 1.40 1.28 1.15
0.05 0.06 0.04 0.02 0.02 0.02 0.02 0.02 0.03 0.07 0.19 0.30 0.49 0.86 1.29 1.36 1.27 1.24 1.15 0.96 0.81 0.76 0.75 0.79 0.79 0.79 0.86 0.90 0.95 0.97 0.89 0.95 1.03 1.02 1.01 1.06 1.14 1.24 1.21 1.08 1.04 1.01 0.96 0.88
0.03 0.05 0.04 0.04 0.03 0.03 0.03 0.03 0.04 0.08 0.13 0.25 0.50 0.93 1.19 1.37 1.37 1.27 1.18 1.03 0.82 0.77 0.77 0.73 0.71 0.64 0.60 0.60 0.66 0.73 0.69 0.69 0.71 0.73 0.77 0.77 0.81 0.86 0.89 0.85 0.80 0.76 0.71 0.67
0.03 0.07 0.10 0.09 0.06 0.04 0.05 0.05 0.05 0.11 0.15 0.20 0.43 0.91 1.07 1.32 1.47 1.47 1.23 1.05 0.97 0.86 0.80 0.73 0.69 0.64 0.59 0.56 0.55 0.55 0.59 0.63 0.63 0.60 0.62 0.63 0.63 0.63 0.65 0.69 0.69 0.64 0.62 0.60
0.05 0.13 0.27 0.30 0.22 0.10 0.08 0.07 0.07 0.09 0.17 0.24 0.45 0.99 1.14 1.30 1.45 1.43 1.27 1.17 1.14 1.06 0.96 0.86 0.76 0.71 0.67 0.62 0.57 0.53 0.56 0.59 0.57 0.52 0.53 0.53 0.54 0.54 0.54 0.55 0.54 0.53 0.52 0.53
0.05 0.14 0.34 0.56 0.47 0.23 0.14 0.11 0.13 0.14 0.24 0.29 0.47 0.85 1.06 1.24 1.43 1.46 1.38 1.22 1.16 1.17 1.07 0.94 0.85 0.78 0.72 0.69 0.64 0.61 0.58 0.56 0.54 0.52 0.51 0.50 0.53 0.53 0.51 0.49 0.47 0.46 0.45 0.47
0.08 0.18 0.21 0.25 0.25 0.22 0.17 0.15 0.16 0.19 0.24 0.38 0.57 0.81 1.05 1.28 1.43 1.57 1.59 1.46 1.30 1.23 1.12 1.00 0.98 0.94 0.83 0.80 0.75 0.69 0.63 0.58 0.53 0.51 0.51 0.55 0.57 0.57 0.56 0.55 0.52 0.50 0.48 0.44
0.09 0.17 0.21 0.24 0.22 0.24 0.22 0.19 0.17 0.23 0.29 0.43 0.65 0.97 1.21 1.35 1.41 1.51 1.53 1.44 1.37 1.34 1.31 1.29 1.30 1.27 1.10 0.95 0.86 0.76 0.68 0.65 0.60 0.61 0.62 0.61 0.60 0.57 0.56 0.55 0.54 0.55 0.52 0.47
0.09 0.15 0.24 0.27 0.19 0.30 0.46 0.35 0.29 0.35 0.41 0.54 0.77 0.95 1.11 1.25 1.40 1.41 1.39 1.44 1.48 1.57 1.62 1.60 1.49 1.37 1.21 1.08 1.00 0.91 0.82 0.78 0.76 0.74 0.69 0.62 0.56 0.55 0.53 0.49 0.51 0.51 0.48 0.44
0.12 0.20 0.28 0.34 0.35 0.62 0.60 0.36 0.36 0.49 0.59 0.61 0.68 0.75 0.93 1.14 1.24 1.25 1.29 1.42 1.52 1.56 1.53 1.47 1.34 1.22 1.14 1.11 1.06 0.96 0.87 0.84 0.79 0.74 0.67 0.57 0.50 0.50 0.51 0.52 0.51 0.46 0.42 0.41
0.08 0.20 0.34 0.42 0.58 0.69 0.70 0.45 0.41 0.58 0.75 0.61 0.66 0.70 0.82 0.91 1.04 1.26 1.33 1.40 1.48 1.44 1.38 1.37 1.34 1.25 1.21 1.17 1.06 0.98 0.92 0.83 0.77 0.71 0.58 0.47 0.41 0.43 0.45 0.45 0.45 0.43 0.41 0.41
0.11 0.19 0.40 0.55 0.70 0.83 0.79 0.42 0.33 0.56 1.02 0.76 0.74 0.75 0.78 0.85 1.10 1.20 1.20 1.16 1.19 1.21 1.26 1.33 1.41 1.43 1.36 1.22 1.00 0.90 0.83 0.73 0.64 0.52 0.43 0.38 0.35 0.33 0.32 0.34 0.37 0.38 0.39 0.37
0.33 0.37 0.49 0.69 0.89 0.95 0.50 0.26 0.38 0.82 1.00 0.83 0.80 0.81 0.81 0.90 0.98 0.87 0.88 0.99 1.07 1.13 1.20 1.24 1.28 1.28 1.20 1.07 0.92 0.85 0.76 0.64 0.48 0.36 0.31 0.31 0.27 0.24 0.24 0.29 0.34 0.35 0.33 0.32
0.53 0.63 0.69 0.78 0.96 1.03 0.46 0.32 0.53 0.65 0.56 0.54 0.57 0.62 0.65 0.69 0.73 0.78 0.80 0.87 0.93 1.03 1.08 1.07 1.03 0.99 0.91 0.81 0.76 0.77 0.69 0.49 0.34 0.29 0.26 0.24 0.21 0.15 0.17 0.26 0.29 0.28 0.31 0.30
0.50 0.58 0.73 0.89 1.01 0.74 0.42 0.39 0.39 0.44 0.44 0.42 0.48 0.51 0.52 0.57 0.63 0.74 0.85 0.90 0.90 0.86 0.87 0.83 0.73 0.68 0.65 0.60 0.61 0.60 0.50 0.36 0.30 0.28 0.28 0.26 0.21 0.19 0.17 0.21 0.24 0.24 0.26 0.23
0.65 0.48 0.59 0.77 0.85 0.61 0.41 0.34 0.34 0.33 0.32 0.36 0.44 0.47 0.46 0.47 0.48 0.57 0.66 0.73 0.75 0.71 0.65 0.58 0.51 0.48 0.47 0.42 0.40 0.37 0.31 0.29 0.31 0.33 0.31 0.30 0.29 0.24 0.18 0.17 0.15 0.15 0.18 0.19
0.62 0.62 0.73 0.86 0.87 0.69 0.54 0.40 0.32 0.32 0.32 0.37 0.43 0.41 0.38 0.35 0.35 0.37 0.44 0.49 0.50 0.47 0.43 0.39 0.37 0.34 0.29 0.26 0.24 0.23 0.23 0.24 0.31 0.30 0.24 0.22 0.21 0.20 0.20 0.16 0.09 0.08 0.10 0.08
0.51 0.59 0.80 0.95 0.79 0.66 0.59 0.47 0.37 0.35 0.32 0.30 0.27 0.27 0.32 0.32 0.31 0.33 0.36 0.38 0.37 0.33 0.30 0.30 0.30 0.27 0.24 0.21 0.18 0.15 0.13 0.16 0.25 0.25 0.21 0.15 0.12 0.12 0.13 0.17 0.14 0.05 0.03 0.03

GEFSCGP_prec_meanprecacc_150.txt.gz
Total_Precipitation_Accumulation
0.00 0.00 0.00 0.00 0.00 0.00 0.00 0.00 0.02 0.04 0.04 0.06 0.12 0.17 0.28 0.28 0.35 0.43 0.39 0.51 0.61 0.66 0.90 1.22 1.72 2.44 2.70 3.14 3.01 2.59 2.35 2.30 2.27 2.29 2.35 2.39 2.59 2.81 2.99 3.09 2.96 2.89 2.83 2.82
0.00 0.00 0.00 0.00 0.00 0.00 0.00 0.01 0.02 0.04 0.05 0.06 0.15 0.23 0.32 0.40 0.48 0.51 0.50 0.59 0.60 0.68 1.02 1.40 1.83 2.22 2.41 2.52 2.61 2.77 2.74 2.68 2.59 2.69 2.99 3.41 3.67 3.73 3.83 3.80 3.72 3.60 3.51 3.45
0.00 0.00 0.00 0.00 0.00 0.00 0.00 0.01 0.02 0.04 0.06 0.10 0.19 0.33 0.37 0.47 0.57 0.52 0.46 0.53 0.61 0.72 0.99 1.26 1.59 1.84 2.19 2.55 2.69 2.89 2.97 3.10 3.26 3.47 3.67 4.12 4.45 4.49 4.36 4.02 3.84 3.67 3.42 3.29
0.00 0.00 0.00 0.00 0.00 0.00 0.00 0.01 0.03 0.03 0.05 0.11 0.17 0.38 0.51 0.60 0.63 0.61 0.55 0.58 0.70 0.80 1.00 1.14 1.30 1.45 1.71 2.06 2.36 2.61 2.84 3.14 3.55 4.09 4.39 4.49 4.66 4.66 4.53 4.21 3.85 3.50 3.20 2.96
0.00 0.00 0.00 0.00 0.00 0.00 0.01 0.01 0.01 0.02 0.03 0.10 0.16 0.29 0.65 0.75 0.68 0.67 0.59 0.64 0.81 0.80 0.93 1.02 0.99 1.08 1.33 1.61 1.83 2.15 2.55 2.98 3.53 4.01 4.44 4.67 4.67 4.50 4.31 3.90 3.51 3.21 2.97 2.70
0.00 0.00 0.00 0.00 0.00 0.00 0.00 0.00 0.01 0.03 0.06 0.13 0.14 0.24 0.59 0.79 0.75 0.69 0.60 0.70 0.89 0.83 0.76 0.81 0.83 0.87 1.05 1.27 1.52 1.77 2.17 2.75 3.16 3.58 4.02 4.20 4.24 4.12 3.89 3.50 3.19 2.94 2.73 2.51
0.02 0.02 0.01 0.01 0.00 0.00 0.00 0.01 0.07 0.13 0.15 0.16 0.13 0.28 0.66 0.83 0.86 0.84 0.81 0.89 0.91 0.76 0.67 0.75 0.75 0.85 1.04 1.24 1.49 1.75 2.10 2.50 2.71 2.85 3.10 3.34 3.40 3.36 3.30 3.16 2.89 2.61 2.33 2.02
0.07 0.06 0.02 0.01 0.01 0.01 0.01 0.02 0.10 0.21 0.22 0.23 0.27 0.56 0.93 0.95 0.92 0.95 0.90 0.84 0.80 0.80 0.78 0.78 0.84 0.90 1.07 1.18 1.32 1.52 1.72 1.99 2.12 2.14 2.30 2.51 2.61 2.63 2.61 2.44 2.19 1.96 1.75 1.54
0.09 0.08 0.02 0.01 0.01 0.01 0.02 0.01 0.04 0.08 0.11 0.23 0.51 0.85 1.10 1.13 1.16 1.17 1.06 0.88 0.75 0.77 0.81 0.83 0.85 0.95 1.13 1.16 1.21 1.26 1.25 1.36 1.47 1.55 1.62 1.67 1.70 1.74 1.73 1.65 1.51 1.41 1.30 1.16
0.05 0.06 0.04 0.02 0.02 0.02 0.02 0.02 0.03 0.07 0.19 0.30 0.50 0.86 1.29 1.37 1.28 1.25 1.17 0.99 0.86 0.79 0.80 0.83 0.83 0.84 0.90 0.93 0.97 0.99 0.90 0.97 1.05 1.04 1.03 1.08 1.17 1.26 1.24 1.10 1.05 1.02 0.98 0.90
0.03 0.05 0.04 0.04 0.03 0.03 0.03 0.03 0.04 0.08 0.13 0.26 0.50 0.93 1.19 1.37 1.37 1.28 1.19 1.05 0.85 0.80 0.80 0.77 0.74 0.67 0.63 0.62 0.67 0.73 0.70 0.69 0.72 0.75 0.78 0.79 0.83 0.88 0.90 0.86 0.81 0.77 0.72 0.70
0.04 0.08 0.11 0.09 0.06 0.04 0.05 0.05 0.06 0.11 0.15 0.20 0.43 0.91 1.07 1.32 1.47 1.47 1.24 1.07 0.99 0.88 0.82 0.75 0.72 0.66 0.61 0.58 0.56 0.57 0.60 0.64 0.64 0.61 0.63 0.64 0.64 0.64 0.66 0.69 0.70 0.66 0.64 0.62
0.05 0.13 0.27 0.30 0.23 0.11 0.08 0.07 0.08 0.09 0.17 0.25 0.45 0.99 1.14 1.30 1.46 1.44 1.28 1.19 1.16 1.08 0.98 0.88 0.80 0.74 0.70 0.64 0.59 0.55 0.58 0.61 0.59 0.53 0.55 0.54 0.55 0.54 0.55 0.55 0.55 0.54 0.54 0.55
0.05 0.14 0.34 0.57 0.48 0.23 0.14 0.11 0.13 0.15 0.24 0.30 0.47 0.85 1.07 1.25 1.44 1.47 1.40 1.24 1.18 1.19 1.09 0.97 0.88 0.81 0.75 0.72 0.67 0.64 0.61 0.58 0.56 0.53 0.53 0.52 0.53 0.53 0.51 0.50 0.48 0.48 0.48 0.51
0.09 0.19 0.22 0.26 0.25 0.22 0.17 0.16 0.16 0.19 0.24 0.39 0.57 0.82 1.06 1.29 1.45 1.59 1.61 1.49 1.33 1.26 1.15 1.02 1.00 0.97 0.87 0.85 0.78 0.71 0.65 0.59 0.55 0.53 0.53 0.56 0.57 0.57 0.56 0.55 0.54 0.52 0.50 0.47
0.10 0.17 0.22 0.24 0.23 0.24 0.22 0.20 0.18 0.23 0.30 0.43 0.66 0.98 1.22 1.36 1.43 1.53 1.55 1.47 1.40 1.37 1.34 1.33 1.33 1.31 1.14 0.99 0.89 0.78 0.69 0.66 0.62 0.63 0.63 0.62 0.60 0.57 0.57 0.56 0.55 0.55 0.53 0.48
0.09 0.16 0.25 0.28 0.20 0.30 0.47 0.36 0.30 0.36 0.42 0.55 0.78 0.96 1.12 1.26 1.41 1.43 1.41 1.47 1.51 1.59 1.65 1.63 1.52 1.40 1.23 1.10 1.02 0.93 0.84 0.79 0.77 0.75 0.71 0.64 0.57 0.56 0.54 0.49 0.51 0.52 0.49 0.45
0.12 0.21 0.29 0.35 0.36 0.63 0.61 0.37 0.37 0.50 0.60 0.62 0.69 0.76 0.94 1.15 1.26 1.26 1.30 1.43 1.54 1.58 1.56 1.51 1.38 1.25 1.17 1.13 1.08 0.98 0.89 0.85 0.80 0.75 0.68 0.59 0.51 0.50 0.52 0.52 0.51 0.47 0.43 0.42
0.09 0.21 0.34 0.42 0.59 0.70 0.70 0.45 0.42 0.59 0.77 0.62 0.67 0.71 0.84 0.92 1.05 1.27 1.35 1.43 1.52 1.48 1.42 1.42 1.39 1.28 1.24 1.20 1.08 1.00 0.95 0.86 0.81 0.74 0.61 0.50 0.43 0.43 0.45 0.46 0.45 0.43 0.42 0.41
0.11 0.20 0.41 0.55 0.71 0.83 0.80 0.43 0.34 0.58 1.05 0.77 0.75 0.76 0.79 0.87 1.12 1.22 1.22 1.18 1.22 1.25 1.30 1.37 1.45 1.47 1.40 1.28 1.04 0.93 0.86 0.76 0.68 0.56 0.47 0.42 0.38 0.35 0.33 0.34 0.37 0.38 0.39 0.38
0.33 0.37 0.49 0.69 0.89 0.95 0.50 0.27 0.38 0.84 1.01 0.84 0.82 0.83 0.82 0.91 1.00 0.90 0.90 1.02 1.11 1.19 1.24 1.28 1.31 1.32 1.25 1.14 0.98 0.90 0.80 0.67 0.52 0.40 0.34 0.33 0.29 0.25 0.25 0.29 0.34 0.35 0.33 0.32
0.53 0.63 0.70 0.78 0.97 1.04 0.46 0.33 0.54 0.66 0.57 0.56 0.59 0.63 0.66 0.71 0.76 0.81 0.84 0.92 0.98 1.09 1.14 1.11 1.08 1.04 0.95 0.86 0.81 0.81 0.73 0.54 0.39 0.32 0.28 0.26 0.22 0.16 0.17 0.26 0.29 0.28 0.31 0.30
0.51 0.59 0.74 0.89 1.01 0.74 0.42 0.39 0.40 0.45 0.44 0.43 0.49 0.51 0.53 0.58 0.67 0.80 0.90 0.96 0.96 0.93 0.93 0.88 0.78 0.72 0.68 0.64 0.64 0.63 0.54 0.40 0.33 0.31 0.31 0.28 0.23 0.20 0.17 0.21 0.24 0.24 0.26 0.24
0.66 0.49 0.59 0.77 0.85 0.61 0.41 0.35 0.34 0.33 0.33 0.36 0.45 0.48 0.47 0.48 0.50 0.59 0.69 0.76 0.79 0.76 0.70 0.63 0.54 0.50 0.48 0.44 0.42 0.39 0.32 0.30 0.33 0.34 0.32 0.31 0.30 0.25 0.19 0.18 0.15 0.16 0.18 0.19
0.63 0.63 0.74 0.86 0.87 0.69 0.55 0.41 0.33 0.32 0.32 0.38 0.43 0.41 0.39 0.35 0.36 0.39 0.48 0.54 0.55 0.52 0.46 0.42 0.40 0.36 0.31 0.27 0.25 0.24 0.23 0.24 0.32 0.30 0.25 0.23 0.21 0.21 0.20 0.16 0.09 0.09 0.10 0.08
0.51 0.60 0.80 0.96 0.79 0.66 0.59 0.47 0.38 0.35 0.32 0.31 0.27 0.28 0.32 0.33 0.32 0.34 0.40 0.45 0.43 0.38 0.35 0.34 0.34 0.31 0.27 0.24 0.19 0.15 0.13 0.16 0.26 0.25 0.21 0.15 0.12 0.12 0.13 0.18 0.14 0.06 0.04 0.03

GEFSCGP_prec_meanprecacc_156.txt.gz
Total_Precipitation_Accumulation
0.00 0.00 0.00 0.00 0.00 0.00 0.00 0.00 0.02 0.04 0.04 0.07 0.12 0.17 0.29 0.29 0.36 0.44 0.41 0.54 0.66 0.72 1.00 1.30 1.79 2.50 2.75 3.19 3.06 2.64 2.40 2.34 2.30 2.33 2.39 2.42 2.62 2.84 3.02 3.11 2.99 2.92 2.86 2.85
0.00 0.00 0.00 0.00 0.00 0.00 0.00 0.01 0.02 0.04 0.05 0.06 0.15 0.23 0.33 0.41 0.49 0.52 0.52 0.62 0.65 0.74 1.11 1.52 1.94 2.30 2.49 2.59 2.65 2.80 2.78 2.72 2.62 2.71 3.01 3.43 3.69 3.76 3.87 3.82 3.75 3.62 3.53 3.47
0.00 0.00 0.00 0.00 0.00 0.00 0.00 0.01 0.02 0.04 0.06 0.10 0.20 0.34 0.38 0.48 0.58 0.54 0.48 0.56 0.65 0.76 1.05 1.36 1.71 1.97 2.29 2.61 2.73 2.92 3.00 3.13 3.29 3.50 3.70 4.14 4.47 4.51 4.39 4.03 3.86 3.68 3.44 3.30
0.00 0.00 0.00 0.00 0.00 0.00 0.00 0.01 0.03 0.03 0.05 0.11 0.18 0.39 0.52 0.61 0.64 0.62 0.57 0.60 0.73 0.84 1.05 1.20 1.36 1.54 1.78 2.12 2.41 2.63 2.86 3.16 3.58 4.12 4.42 4.51 4.69 4.69 4.56 4.23 3.86 3.50 3.21 2.97
0.00 0.00 0.00 0.00 0.00 0.00 0.01 0.01 0.01 0.02 0.03 0.11 0.16 0.30 0.66 0.76 0.69 0.68 0.60 0.65 0.84 0.82 0.95 1.05 1.02 1.13 1.39 1.66 1.87 2.19 2.58 3.01 3.57 4.05 4.48 4.71 4.70 4.53 4.34 3.92 3.52 3.22 2.98 2.71
0.00 0.00 0.00 0.00 0.00 0.00 0.00 0.00 0.01 0.03 0.06 0.13 0.14 0.25 0.59 0.79 0.75 0.69 0.61 0.71 0.90 0.85 0.78 0.82 0.86 0.89 1.08 1.30 1.55 1.80 2.20 2.78 3.19 3.61 4.06 4.24 4.28 4.16 3.92 3.53 3.20 2.95 2.74 2.52
0.02 0.02 0.01 0.01 0.00 0.00 0.00 0.01 0.07 0.14 0.16 0.17 0.13 0.28 0.66 0.83 0.87 0.84 0.81 0.89 0.92 0.77 0.68 0.76 0.77 0.87 1.06 1.26 1.50 1.78 2.12 2.53 2.74 2.88 3.13 3.37 3.43 3.40 3.35 3.19 2.92 2.63 2.34 2.03
0.07 0.06 0.02 0.01 0.01 0.01 0.01 0.02 0.10 0.22 0.22 0.23 0.27 0.56 0.93 0.96 0.92 0.96 0.90 0.85 0.81 0.81 0.79 0.80 0.86 0.92 1.10 1.20 1.34 1.54 1.75 2.02 2.15 2.17 2.32 2.53 2.63 2.65 2.64 2.47 2.21 1.97 1.76 1.55
0.09 0.08 0.02 0.01 0.01 0.02 0.02 0.01 0.04 0.08 0.11 0.24 0.51 0.85 1.11 1.13 1.16 1.17 1.06 0.89 0.77 0.78 0.84 0.86 0.88 0.98 1.16 1.19 1.24 1.29 1.29 1.40 1.50 1.57 1.64 1.68 1.72 1.77 1.77 1.68 1.54 1.44 1.31 1.17
0.05 0.06 0.04 0.02 0.02 0.02 0.02 0.02 0.03 0.07 0.19 0.30 0.50 0.87 1.30 1.37 1.28 1.25 1.18 1.00 0.87 0.81 0.81 0.85 0.86 0.88 0.94 0.96 1.01 1.01 0.92 0.98 1.06 1.05 1.04 1.09 1.18 1.28 1.27 1.13 1.07 1.04 0.99 0.91
0.03 0.06 0.04 0.05 0.03 0.03 0.03 0.04 0.05 0.08 0.13 0.26 0.51 0.94 1.19 1.37 1.37 1.29 1.20 1.06 0.86 0.81 0.81 0.79 0.76 0.70 0.66 0.66 0.71 0.77 0.72 0.71 0.74 0.76 0.79 0.79 0.83 0.89 0.91 0.88 0.82 0.78 0.73 0.70
0.04 0.08 0.11 0.09 0.07 0.05 0.05 0.06 0.06 0.12 0.16 0.20 0.43 0.92 1.07 1.32 1.48 1.48 1.24 1.08 1.01 0.89 0.83 0.77 0.74 0.70 0.65 0.61 0.59 0.60 0.63 0.66 0.66 0.62 0.64 0.65 0.65 0.64 0.67 0.70 0.71 0.67 0.64 0.63
0.06 0.13 0.27 0.30 0.23 0.12 0.09 0.08 0.08 0.10 0.18 0.25 0.46 1.01 1.15 1.31 1.47 1.45 1.29 1.20 1.18 1.10 1.01 0.91 0.83 0.78 0.73 0.66 0.60 0.56 0.59 0.62 0.60 0.55 0.56 0.55 0.56 0.55 0.55 0.56 0.56 0.55 0.55 0.56
0.05 0.14 0.34 0.57 0.48 0.23 0.14 0.12 0.14 0.16 0.26 0.31 0.48 0.87 1.08 1.26 1.44 1.48 1.41 1.26 1.21 1.22 1.13 1.00 0.91 0.84 0.78 0.74 0.69 0.65 0.63 0.60 0.57 0.55 0.54 0.53 0.54 0.54 0.52 0.50 0.49 0.49 0.49 0.52
0.09 0.19 0.22 0.26 0.25 0.22 0.18 0.16 0.17 0.20 0.25 0.40 0.59 0.83 1.07 1.29 1.45 1.60 1.62 1.50 1.35 1.29 1.18 1.05 1.03 0.99 0.89 0.88 0.82 0.74 0.67 0.62 0.57 0.55 0.54 0.56 0.58 0.58 0.57 0.57 0.55 0.55 0.52 0.49
0.10 0.18 0.22 0.25 0.23 0.25 0.23 0.20 0.18 0.24 0.30 0.44 0.67 0.99 1.22 1.37 1.44 1.54 1.56 1.48 1.42 1.39 1.36 1.35 1.36 1.35 1.19 1.04 0.94 0.83 0.74 0.70 0.65 0.65 0.65 0.64 0.61 0.58 0.58 0.57 0.57 0.58 0.55 0.52
0.09 0.17 0.26 0.29 0.20 0.31 0.48 0.37 0.32 0.37 0.42 0.56 0.80 0.98 1.12 1.27 1.42 1.43 1.41 1.47 1.51 1.60 1.65 1.64 1.55 1.46 1.30 1.16 1.08 0.98 0.87 0.82 0.80 0.78 0.73 0.66 0.59 0.57 0.55 0.50 0.52 0.55 0.53 0.49
0.12 0.23 0.30 0.35 0.37 0.64 0.62 0.38 0.38 0.51 0.61 0.64 0.70 0.76 0.95 1.16 1.26 1.27 1.31 1.45 1.55 1.59 1.58 1.54 1.43 1.30 1.23 1.20 1.14 1.03 0.91 0.87 0.82 0.78 0.72 0.62 0.54 0.53 0.53 0.53 0.54 0.51 0.47 0.45
0.09 0.23 0.37 0.44 0.60 0.71 0.72 0.46 0.43 0.60 0.79 0.63 0.68 0.71 0.84 0.93 1.06 1.29 1.37 1.45 1.55 1.51 1.46 1.46 1.44 1.33 1.29 1.25 1.14 1.06 0.99 0.89 0.84 0.78 0.65 0.53 0.47 0.47 0.48 0.48 0.48 0.46 0.45 0.44
0.11 0.20 0.42 0.57 0.72 0.85 0.81 0.43 0.34 0.60 1.08 0.78 0.76 0.77 0.80 0.88 1.14 1.24 1.24 1.22 1.26 1.28 1.33 1.41 1.50 1.51 1.44 1.31 1.09 1.00 0.94 0.83 0.73 0.61 0.51 0.46 0.42 0.38 0.36 0.36 0.39 0.40 0.42 0.39
0.35 0.38 0.50 0.69 0.90 0.96 0.51 0.27 0.40 0.86 1.03 0.85 0.83 0.84 0.83 0.93 1.03 0.92 0.93 1.05 1.14 1.22 1.28 1.33 1.37 1.37 1.29 1.18 1.01 0.95 0.87 0.74 0.57 0.45 0.39 0.38 0.34 0.28 0.26 0.31 0.36 0.37 0.34 0.34
0.54 0.63 0.70 0.79 0.98 1.05 0.47 0.34 0.55 0.68 0.58 0.56 0.60 0.64 0.67 0.72 0.77 0.82 0.85 0.94 1.00 1.12 1.18 1.17 1.16 1.12 1.01 0.91 0.85 0.84 0.78 0.60 0.44 0.37 0.34 0.30 0.25 0.17 0.17 0.27 0.30 0.29 0.32 0.32
0.51 0.59 0.74 0.90 1.02 0.75 0.43 0.40 0.41 0.45 0.45 0.44 0.50 0.52 0.54 0.59 0.67 0.80 0.92 0.97 0.97 0.95 0.97 0.93 0.85 0.79 0.77 0.71 0.69 0.66 0.57 0.43 0.37 0.35 0.35 0.31 0.26 0.21 0.18 0.22 0.25 0.25 0.27 0.24
0.66 0.49 0.59 0.78 0.86 0.61 0.41 0.35 0.34 0.33 0.33 0.37 0.46 0.49 0.48 0.49 0.51 0.60 0.70 0.77 0.80 0.78 0.74 0.68 0.61 0.57 0.56 0.53 0.49 0.43 0.35 0.33 0.36 0.38 0.36 0.35 0.33 0.26 0.20 0.19 0.15 0.16 0.19 0.20
0.63 0.63 0.74 0.86 0.87 0.69 0.55 0.41 0.33 0.32 0.33 0.38 0.44 0.42 0.40 0.36 0.37 0.41 0.50 0.56 0.57 0.56 0.52 0.48 0.46 0.42 0.38 0.34 0.31 0.28 0.25 0.26 0.34 0.33 0.28 0.25 0.23 0.21 0.20 0.16 0.10 0.09 0.10 0.09
0.52 0.60 0.80 0.96 0.80 0.67 0.60 0.47 0.38 0.35 0.33 0.31 0.28 0.28 0.33 0.34 0.33 0.36 0.42 0.47 0.46 0.42 0.40 0.41 0.41 0.37 0.34 0.30 0.24 0.19 0.15 0.18 0.27 0.27 0.22 0.16 0.13 0.13 0.13 0.18 0.14 0.06 0.04 0.04